GFSWCAN_sfc_rhum_000.txt.gz
RH
82 80 78 77 76 77 78 77 78 78 78 77 75 74 72 72 70 92 97 88 98 98 75 53 40 45 56 54 52 46 50 52 53 78 50 27 24 22 21 26 42 42 38 29 34 46 43 42 33 47 48 39 34 32
80 82 81 80 78 78 77 75 78 80 78 76 74 73 70 73 74 85 94 80 91 99 70 47 42 37 40 34 40 44 51 53 40 66 55 59 56 35 31 27 33 33 27 29 35 30 54 46 54 44 36 39 35 36
83 83 83 81 80 82 79 74 78 79 77 74 73 72 70 74 78 84 96 91 78 77 58 44 40 31 29 30 33 48 42 42 52 46 49 72 82 53 62 39 32 36 31 36 48 49 50 51 45 40 34 34 31 31
84 82 83 85 83 81 81 78 78 78 77 73 70 69 68 71 70 75 93 73 75 70 60 31 27 33 27 26 30 36 38 39 52 48 71 70 86 49 64 63 54 46 44 47 50 60 46 48 49 45 40 37 36 34
84 83 83 82 81 80 80 79 78 76 71 71 69 70 68 70 75 85 72 58 66 80 48 39 28 30 28 29 36 36 41 47 64 63 98 81 45 55 49 61 90 85 80 46 43 64 77 74 51 41 41 38 36 36
86 84 83 80 79 78 77 76 74 72 71 75 73 73 66 70 74 58 55 70 60 56 50 48 33 39 38 37 36 42 44 52 51 45 84 92 40 55 88 94 80 78 69 68 52 54 64 71 55 38 42 39 36 34
84 82 82 80 79 77 79 78 75 73 73 76 75 76 76 78 61 60 66 56 70 50 80 76 46 35 40 42 41 42 42 43 40 40 63 93 74 58 84 95 78 74 64 55 48 59 68 70 84 55 41 33 36 31
84 83 82 82 78 76 76 75 74 72 72 72 75 77 80 83 80 56 50 75 62 80 65 86 64 53 35 33 39 36 42 46 38 33 88 96 81 70 94 87 68 69 70 84 80 62 47 52 73 60 38 33 39 43
86 85 84 84 82 80 77 75 76 75 76 78 80 78 60 57 49 55 74 88 66 73 95 78 69 71 29 28 32 36 31 39 39 59 87 73 89 98 98 90 82 68 67 77 82 83 76 70 69 60 56 40 37 39
86 86 86 83 82 80 81 81 80 83 84 81 65 56 64 54 75 66 93 72 72 80 71 64 39 56 46 35 32 31 32 49 80 82 73 91 97 95 92 93 89 80 82 71 83 87 85 83 73 70 58 51 43 39
86 86 86 85 82 83 84 84 84 84 76 59 72 71 54 66 57 55 66 76 84 80 55 50 50 58 42 65 56 33 40 47 80 75 88 93 96 95 92 93 93 88 87 85 76 79 81 76 50 46 50 44 40 40
88 88 88 86 83 84 85 86 86 63 64 79 93 81 62 61 66 71 70 61 84 67 53 57 54 56 56 56 47 38 35 36 60 53 68 97 97 90 91 77 77 81 78 75 64 61 48 46 46 50 49 50 46 44
86 86 88 88 86 85 84 85 86 86 79 68 77 74 72 72 98 97 89 72 84 62 54 49 55 48 54 43 40 38 41 62 42 64 76 96 96 87 83 76 62 58 54 53 48 42 38 38 38 44 49 48 44 45
85 85 84 85 84 86 88 89 89 78 70 79 86 100 99 97 95 89 90 83 57 52 53 49 58 81 38 40 39 49 43 50 60 68 94 94 88 80 74 66 52 50 46 44 43 41 40 38 38 41 44 48 44 48
85 85 84 74 78 86 90 86 82 71 84 90 94 100 99 89 79 62 58 48 43 45 49 51 45 45 40 48 42 47 52 78 94 95 92 89 87 74 74 61 54 49 46 49 45 43 42 40 38 41 45 46 48 50
84 81 58 77 85 89 91 70 59 58 75 83 81 87 75 65 52 44 49 52 42 47 48 43 44 46 55 60 73 78 81 97 97 97 97 89 78 71 73 63 56 53 52 49 46 46 41 43 47 46 41 44 47 53
86 49 78 83 87 88 82 59 57 64 58 60 64 54 56 51 51 44 46 47 44 41 52 44 63 74 53 75 95 88 96 97 96 90 89 80 75 78 72 63 60 57 59 53 49 47 51 47 41 39 47 49 44 47
53 53 76 84 84 67 51 49 54 47 58 46 52 49 52 45 50 47 51 47 46 49 49 62 52 68 79 84 90 94 95 95 90 88 85 72 74 72 66 67 62 58 58 54 52 47 47 45 36 34 42 45 37 33
71 75 85 88 82 72 62 52 55 54 46 44 46 43 46 43 48 48 46 49 50 49 44 45 58 71 85 88 86 79 82 83 86 63 61 74 74 72 70 66 63 58 56 53 48 36 37 47 39 33 28 28 28 27
91 88 87 87 79 64 56 64 49 52 55 54 47 50 47 49 46 44 43 44 41 44 51 56 58 58 53 52 52 53 53 56 76 70 67 81 52 56 62 50 42 44 36 39 34 46 31 30 28 28 29 32 31 30
74 64 77 62 54 58 57 58 53 59 59 50 49 52 49 45 49 50 52 38 42 48 49 48 46 48 64 61 55 55 59 62 78 80 80 66 46 35 33 30 32 29 29 29 29 31 35 30 28 25 26 26 26 25
66 83 60 57 62 61 62 56 60 56 55 51 53 50 54 60 64 61 58 67 76 87 81 78 75 72 75 79 68 71 74 74 75 84 92 86 44 38 36 31 30 30 30 30 29 29 28 27 27 24 25 26 31 25
84 75 62 64 79 88 80 59 73 76 83 73 60 67 77 77 78 77 97 95 95 82 88 81 87 74 82 76 73 72 66 66 77 86 85 58 39 36 33 32 28 30 30 30 28 27 27 43 31 26 24 26 28 30
85 81 84 85 82 89 68 75 67 72 71 76 92 100 90 86 82 87 82 88 87 87 88 81 83 75 59 55 38 40 37 30 30 38 41 32 31 34 31 27 25 26 28 27 26 26 25 26 39 25 26 26 31 31
91 95 85 100 82 79 70 69 71 67 72 72 86 75 72 74 77 71 76 78 75 74 61 42 37 36 35 33 30 30 36 27 28 28 33 31 31 28 27 27 28 27 25 27 27 26 26 25 26 28 29 27 32 33
96 77 88 68 70 73 68 66 68 69 64 65 63 55 55 58 50 67 76 83 82 49 42 39 36 35 35 33 32 30 28 27 31 30 34 31 30 30 31 32 31 31 27 27 29 30 30 29 30 33 30 33 49 35
74 69 65 66 69 70 65 63 66 65 60 61 58 57 44 50 59 68 54 48 40 38 35 32 32 31 32 31 29 27 24 24 35 35 34 30 30 31 32 35 38 38 32 35 32 34 36 35 35 34 34 34 35 37
65 66 65 57 60 54 60 51 49 49 44 47 48 51 58 60 65 51 41 36 32 30 29 28 28 28 30 31 30 28 25 22 22 23 22 24 25 27 33 30 33 66 40 39 38 37 38 38 39 38 37 36 34 36
60 48 64 59 51 50 51 45 39 38 42 41 50 55 53 50 45 45 50 50 51 48 52 57 36 28 29 28 25 23 26 26 31 35 36 30 31 33 31 31 30 30 29 29 70 51 40 35 38 35 35 32 31 31
48 43 51 47 48 53 56 42 42 39 39 47 54 71 88 92 89 82 91 93 94 88 48 33 31 30 30 28 27 27 23 29 32 34 37 38 35 30 30 30 29 27 28 29 28 28 50 36 38 30 33 32 31 33
44 41 42 45 51 49 46 38 40 44 52 70 82 89 90 93 93 89 84 78 50 33 32 31 29 28 28 27 30 33 31 31 35 35 34 29 29 31 31 31 29 29 30 31 31 30 32 32 31 33 34 36 39 41
40 51 54 46 51 60 55 51 53 62 66 85 84 69 66 69 71 71 42 33 31 32 46 34 31 31 30 29 31 33 56 34 37 37 42 37 35 35 31 29 29 30 31 30 30 30 32 34 34 36 38 40 38 38
35 32 35 32 33 36 49 58 63 74 70 65 73 70 58 65 70 70 37 33 34 32 32 31 28 28 34 34 35 34 45 33 53 73 71 73 76 63 36 31 32 31 33 31 31 31 33 36 36 39 40 40 39 41

GFSWCAN_sfc_rhum_003.txt.gz
RH
84 82 80 81 81 80 78 77 77 74 78 77 75 74 73 74 74 72 81 78 98 97 75 54 42 44 40 34 53 79 34 46 45 67 54 30 24 20 21 21 24 23 26 24 26 30 31 29 25 31 43 35 31 30
84 83 80 80 83 84 80 81 77 72 76 76 73 71 74 69 71 71 89 90 90 99 66 45 40 33 34 30 30 32 45 56 39 75 83 74 78 50 30 30 17 22 20 22 22 26 43 36 38 36 32 33 32 31
85 81 81 82 82 81 78 79 78 78 76 75 72 70 71 72 71 82 87 94 94 97 67 43 35 27 24 26 24 36 31 37 47 52 52 86 92 88 64 38 22 32 20 23 30 43 43 38 34 31 30 31 28 28
82 81 81 81 80 78 78 78 78 77 77 72 72 71 69 68 74 75 93 92 93 91 68 36 20 25 21 21 26 26 34 35 41 37 51 88 90 94 83 93 72 80 41 35 47 48 45 43 41 39 37 32 32 40
84 83 81 80 81 78 77 76 75 72 71 72 73 72 72 68 74 71 71 80 93 97 60 39 26 23 18 21 26 26 29 38 42 47 93 93 75 90 83 83 92 92 92 58 41 46 48 49 39 35 38 38 35 37
85 82 82 83 82 78 76 76 75 74 73 74 75 74 70 72 76 67 90 58 54 80 60 45 32 30 29 22 29 31 30 37 40 94 91 84 53 66 98 90 71 79 69 59 60 41 45 43 39 39 37 34 27 27
84 84 82 83 82 79 77 76 75 74 73 72 73 74 76 78 57 87 86 58 57 52 78 82 64 42 35 30 28 33 37 41 51 93 69 83 75 96 80 92 75 68 56 53 47 50 60 53 72 54 48 36 35 29
86 86 86 84 82 77 77 75 76 77 76 75 76 77 80 84 78 60 52 72 58 69 88 92 62 59 33 35 43 33 45 48 77 85 70 89 95 95 93 90 73 66 65 57 48 46 50 56 72 86 77 66 41 41
86 85 86 85 84 81 82 78 78 80 82 82 82 80 60 60 45 82 75 81 72 88 98 96 97 90 29 66 61 33 28 36 42 47 88 95 93 97 98 94 87 74 76 75 61 58 60 61 63 72 78 68 60 46
87 87 87 86 85 84 84 84 84 84 82 84 66 74 78 44 72 63 90 97 96 81 78 71 46 73 54 46 25 25 25 36 64 93 94 92 96 95 89 86 86 82 80 80 83 88 82 91 85 76 77 71 48 62
86 86 86 85 85 85 85 86 87 87 73 54 56 58 45 63 54 76 84 88 89 83 55 58 67 61 34 67 49 45 86 49 86 98 91 92 97 93 86 84 84 84 86 82 81 70 71 75 81 75 60 52 50 40
85 85 85 84 84 86 83 87 90 68 55 70 70 66 57 62 78 77 84 81 78 90 69 80 64 45 36 40 62 64 59 80 69 92 88 96 98 90 80 79 82 84 72 71 65 60 58 49 38 41 41 41 40 39
85 85 84 84 83 82 83 89 91 90 82 65 81 77 75 72 98 87 98 96 94 74 73 73 59 36 44 87 77 84 51 66 51 85 95 94 91 84 85 84 78 68 52 53 55 52 46 35 34 38 40 37 37 38
88 86 86 85 83 81 86 91 88 72 64 67 78 100 98 98 89 74 79 70 69 63 59 48 44 58 55 48 46 49 43 60 76 96 95 95 93 83 71 59 51 48 40 37 37 36 37 34 35 35 37 39 40 51
85 84 87 76 79 82 85 90 85 58 67 86 85 100 95 82 78 81 57 38 37 31 35 42 39 41 38 46 47 54 60 96 95 94 93 96 90 78 65 52 44 40 40 40 38 36 35 33 34 40 48 40 40 45
85 80 56 77 81 83 87 69 53 52 64 73 72 64 56 56 38 35 39 36 32 33 30 52 40 52 57 67 78 78 81 99 97 98 92 92 87 66 66 63 52 42 41 42 40 36 36 37 38 41 36 39 44 45
90 41 78 81 84 86 78 52 41 41 43 46 50 30 35 39 40 38 37 37 33 31 36 37 64 76 67 80 93 93 97 96 97 93 96 93 84 73 65 60 50 44 44 40 42 44 45 39 36 52 49 39 34 38
48 46 76 82 81 59 38 36 37 31 38 33 37 36 36 34 42 41 37 37 39 40 38 50 45 61 82 92 93 90 94 96 93 90 88 80 77 67 71 66 62 63 55 46 41 45 40 49 46 46 40 35 51 34
68 70 86 89 77 67 44 39 42 40 32 34 34 32 34 36 37 35 35 37 35 31 32 42 57 73 82 78 81 79 80 87 88 88 85 73 70 68 59 54 53 59 48 46 42 42 36 40 34 32 29 29 27 33
90 86 84 85 76 49 44 45 36 39 40 39 34 36 34 38 35 32 30 31 31 34 41 46 45 47 51 52 50 61 70 79 86 83 74 45 51 47 47 39 35 43 37 38 33 44 32 31 26 26 25 28 27 27
70 62 71 56 44 46 46 46 42 42 41 39 36 36 40 41 46 50 58 37 43 50 58 68 77 82 71 74 79 85 76 69 85 79 60 40 33 31 30 29 30 28 28 29 30 30 34 28 26 22 22 23 24 23
58 81 53 50 56 53 57 51 51 49 57 43 51 51 66 66 65 64 63 64 85 94 93 92 91 89 83 76 74 61 74 75 77 88 92 84 49 42 43 37 33 33 30 30 28 26 25 25 24 22 21 22 28 22
78 67 54 54 68 76 70 45 62 59 68 59 50 60 64 64 70 56 91 94 89 92 84 83 76 66 58 44 46 42 45 44 38 41 43 36 35 34 29 28 25 28 28 27 25 25 25 37 28 23 22 22 23 26
88 70 75 71 65 79 50 56 46 49 47 50 64 81 65 69 67 76 82 82 82 69 49 52 33 33 33 46 31 32 32 26 25 29 30 27 28 30 28 26 23 24 26 25 24 24 24 23 33 21 23 24 24 26
85 87 72 99 63 58 48 47 49 43 48 49 57 57 60 60 61 66 78 76 41 38 36 34 32 33 33 31 27 26 31 23 27 28 31 27 26 24 26 26 30 30 26 28 29 27 26 24 24 25 25 25 30 30
91 62 81 50 48 48 44 44 44 44 41 42 42 36 36 48 48 70 76 58 41 36 34 34 35 32 32 30 30 27 23 21 27 28 29 25 27 28 31 32 31 33 30 30 29 29 29 29 28 30 27 29 47 33
66 50 52 48 46 44 48 38 39 37 41 44 38 37 41 56 75 62 50 43 49 38 33 33 33 32 32 30 28 26 22 21 26 24 24 25 25 27 28 30 35 34 28 30 30 29 32 31 30 30 29 28 28 27
51 49 56 43 43 35 46 40 38 41 39 35 44 53 57 64 79 56 53 48 47 48 48 40 36 28 25 25 21 19 21 21 21 22 19 20 22 24 28 24 25 56 28 28 27 26 29 29 28 28 29 29 28 26
42 32 37 43 39 39 44 47 46 36 36 38 57 59 68 85 82 69 62 56 57 86 79 38 29 23 21 19 19 19 20 24 29 33 33 28 27 25 23 24 23 23 23 24 64 43 36 30 31 29 30 27 26 27
35 27 36 38 45 57 48 35 39 38 40 47 61 72 84 92 90 76 69 56 44 32 27 24 23 22 22 20 22 24 21 24 26 30 32 30 27 24 26 26 26 25 25 26 25 24 50 31 37 26 29 28 30 31
26 28 36 45 46 39 36 38 40 41 46 55 63 78 82 66 68 46 31 30 26 25 26 25 22 21 23 24 27 30 28 27 31 33 34 27 25 27 28 26 25 24 26 26 25 25 27 27 27 30 31 33 35 36
26 29 29 33 41 38 41 60 45 49 43 53 54 51 54 81 82 42 34 29 28 27 38 28 24 24 26 24 25 26 55 28 32 33 36 30 30 31 26 24 25 25 27 26 26 26 29 31 31 34 34 36 37 38
25 25 28 26 26 26 35 56 67 57 50 40 54 53 45 53 60 41 30 29 30 27 26 23 21 23 29 30 29 28 37 31 52 70 66 66 67 56 35 29 30 30 31 30 30 31 35 37 37 39 38 38 38 37

GFSWCAN_sfc_rhum_006.txt.gz
RH
86 83 82 81 82 82 83 78 78 78 73 74 76 72 71 71 73 73 78 82 94 97 73 56 45 48 45 64 93 79 88 58 36 35 37 44 51 38 32 30 32 33 28 29 34 40 45 24 33 35 38 31 28 27
85 83 81 82 81 82 81 79 78 78 77 75 73 71 70 72 70 70 91 82 84 100 70 48 43 36 35 37 38 45 74 82 83 62 75 74 64 58 48 43 23 28 22 24 27 27 33 32 39 33 28 33 35 37
88 85 84 83 84 84 82 78 76 76 75 73 70 69 70 71 72 70 94 93 93 96 64 46 45 34 32 34 28 40 34 40 50 85 95 93 90 87 75 42 37 25 47 27 30 28 33 32 28 28 29 44 46 50
86 82 81 83 85 83 80 81 76 76 73 72 72 71 70 71 69 70 84 94 94 97 92 46 33 37 24 22 26 26 29 37 45 50 66 73 90 86 85 89 87 86 72 67 36 49 44 41 37 35 39 40 44 49
87 84 82 84 84 81 77 77 78 75 73 73 73 74 72 69 75 64 66 84 94 98 84 60 34 26 22 21 22 26 28 33 44 47 84 92 86 90 91 94 92 84 93 96 89 50 54 54 40 37 37 36 36 42
87 87 87 86 84 83 78 77 77 76 75 74 73 72 72 74 78 54 93 76 85 95 96 48 27 32 27 21 23 29 29 31 33 62 74 93 79 94 94 93 82 92 78 85 97 79 50 40 34 31 35 32 30 31
85 85 86 86 84 82 82 80 79 79 79 78 78 76 76 80 61 82 78 63 67 58 85 72 58 36 39 21 22 27 28 31 40 72 88 94 95 95 93 95 94 90 91 92 88 84 64 49 52 38 37 34 36 35
86 86 86 86 84 82 82 79 80 80 80 82 83 83 84 84 79 64 44 66 62 78 79 96 78 82 49 28 34 28 37 40 74 86 94 94 96 97 95 90 88 91 90 89 84 57 60 57 60 62 49 41 43 40
86 86 86 87 87 86 85 84 85 87 88 87 86 84 64 65 57 81 73 72 62 81 97 90 97 94 83 94 76 36 42 59 76 97 95 94 94 96 98 96 88 79 88 78 66 61 55 62 62 66 66 62 64 65
86 86 85 85 84 84 84 84 85 88 90 87 65 55 81 76 75 78 98 96 97 94 84 76 57 87 91 65 45 37 33 44 88 97 91 94 96 93 96 90 84 80 76 69 71 74 68 70 70 68 72 78 76 71
85 85 85 84 84 83 83 82 86 90 84 52 53 53 45 59 66 93 92 97 90 94 71 54 72 87 86 90 74 68 81 67 85 93 93 93 96 95 92 91 89 86 83 81 73 64 70 78 77 73 69 73 83 77
88 87 87 86 87 86 84 84 89 66 54 71 74 64 59 72 85 90 96 90 95 98 91 77 66 49 59 42 85 90 90 71 96 88 88 97 96 93 89 83 81 80 72 75 78 77 72 66 45 46 44 51 63 60
86 85 85 85 88 86 84 85 91 89 81 60 77 71 70 81 98 90 99 99 95 89 64 58 70 90 87 90 86 94 80 96 91 90 95 96 97 93 91 65 61 63 58 58 52 53 52 46 37 38 45 50 45 52
88 87 85 85 87 83 82 86 90 75 72 63 72 99 96 97 94 94 90 87 71 87 82 40 47 95 96 87 87 90 69 77 86 93 96 96 94 95 84 73 65 67 65 46 46 40 38 43 54 51 50 43 51 60
88 87 82 78 82 80 81 86 89 62 62 69 63 99 75 66 67 64 50 54 70 58 48 38 38 42 64 68 73 69 73 94 96 98 95 96 91 77 72 71 64 57 48 41 38 39 43 42 48 58 57 61 66 67
89 83 60 80 80 81 82 71 59 48 54 61 53 45 41 35 36 38 37 39 33 47 39 35 45 54 62 76 89 96 94 99 97 97 97 93 85 92 90 88 71 44 43 47 47 43 46 53 60 47 45 46 50 48
92 46 80 81 83 85 78 52 35 36 35 36 38 29 34 44 61 44 43 41 34 36 48 49 72 80 70 90 98 94 99 99 99 97 98 93 91 88 74 80 83 89 70 57 49 58 59 56 47 51 54 55 53 49
56 48 74 82 81 64 35 33 34 29 35 32 38 36 37 34 39 41 34 35 37 39 43 51 48 74 94 97 98 98 97 97 96 96 95 89 86 79 79 72 72 63 66 72 77 63 50 53 51 45 54 51 47 51
66 69 84 91 78 72 37 34 40 40 34 34 34 34 37 38 47 41 32 30 31 30 36 41 59 77 85 89 88 92 94 95 95 92 90 81 79 79 76 66 60 48 52 57 64 48 34 46 35 30 28 35 42 31
89 89 86 86 78 49 39 41 32 35 43 40 34 39 41 55 43 37 37 40 39 44 54 71 84 91 94 94 91 92 92 93 90 80 82 64 41 51 57 59 43 51 37 43 35 44 31 29 26 25 24 28 30 28
73 61 72 58 48 43 43 44 41 39 46 49 42 48 60 52 61 61 71 49 57 87 88 87 89 85 71 78 78 65 74 65 81 88 67 42 42 42 41 33 36 35 32 30 30 30 33 28 27 24 23 23 23 23
54 80 54 48 53 48 50 42 43 46 56 46 47 47 66 61 56 61 51 54 74 89 88 85 85 47 47 58 52 52 70 76 66 76 70 64 44 40 36 33 33 33 29 28 27 26 26 24 24 22 23 24 27 23
75 71 51 48 59 71 69 49 54 48 56 51 55 56 64 65 62 42 59 66 65 83 71 64 62 57 51 52 50 47 48 49 34 33 33 35 33 29 26 26 24 27 28 28 26 26 26 38 28 23 23 24 25 24
87 63 65 60 53 73 41 45 43 44 42 46 55 67 64 70 54 56 80 75 56 37 39 57 38 36 36 49 31 32 35 28 28 32 30 28 29 38 39 34 30 30 30 29 29 29 27 26 36 24 25 25 26 28
82 81 69 99 55 45 38 45 41 40 42 41 44 56 64 60 54 67 70 58 49 48 44 36 36 38 36 33 30 29 35 22 27 29 29 27 27 27 32 35 35 33 29 31 30 29 29 28 28 28 27 27 32 31
90 54 78 40 44 44 48 42 39 42 38 39 38 39 82 84 58 77 72 56 47 42 40 41 41 39 34 30 27 24 24 22 25 25 26 26 28 29 30 32 33 32 25 27 28 28 28 29 27 28 26 29 42 29
67 48 44 37 37 36 45 47 36 36 49 57 46 49 53 75 82 70 62 64 59 48 44 41 39 30 28 25 22 21 20 23 28 26 22 26 26 26 26 28 31 28 24 25 26 26 29 29 28 27 26 27 26 26
88 56 82 92 68 47 69 41 42 49 43 37 46 59 57 72 87 70 66 54 44 41 38 35 29 22 22 20 18 19 20 22 23 22 21 23 22 22 26 23 24 53 27 28 27 27 28 27 28 28 29 27 27 27
37 54 49 48 37 34 37 44 45 37 38 39 57 63 73 76 62 51 43 43 38 36 32 25 24 20 19 18 19 19 22 24 30 35 34 28 26 24 23 24 24 23 24 24 54 40 31 27 29 27 28 27 27 27
28 29 40 47 37 46 41 39 40 35 37 44 51 57 60 57 46 41 44 34 29 26 25 23 20 20 21 20 23 25 23 25 28 32 34 31 27 24 25 25 25 24 24 24 23 23 49 31 34 26 28 28 29 30
21 22 27 35 40 32 30 32 35 35 37 41 40 43 45 50 46 36 30 27 24 22 22 21 20 20 23 24 26 28 27 27 32 32 31 25 24 27 27 26 24 24 26 26 25 25 27 28 28 31 32 33 34 35
22 26 24 28 39 35 35 38 37 40 40 45 43 51 52 67 71 49 32 28 26 24 34 24 20 23 25 24 24 24 51 29 31 30 32 29 31 32 29 26 27 27 29 28 28 28 31 32 32 34 32 34 34 35
23 22 25 23 25 28 39 42 52 46 38 42 43 40 41 47 52 39 30 28 25 24 24 21 19 22 27 27 28 27 38 33 46 66 64 60 61 54 36 31 33 32 32 30 29 30 33 34 32 34 35 36 38 38

GFSWCAN_sfc_rhum_009.txt.gz
RH
86 84 82 81 81 83 84 83 83 79 77 76 74 73 72 71 73 77 75 88 98 99 81 68 59 62 61 62 85 75 86 89 93 88 44 62 58 52 60 54 51 71 80 44 51 52 50 42 38 43 66 52 57 58
87 85 82 81 83 85 85 84 83 82 78 74 72 71 70 70 72 76 87 86 92 99 87 64 63 56 53 50 54 91 90 90 95 98 86 85 53 84 81 86 50 71 73 76 43 55 58 50 54 63 63 73 71 74
89 88 86 85 85 85 84 83 82 81 78 74 73 72 72 72 72 76 94 94 96 97 73 64 60 43 41 52 46 59 56 74 91 92 99 96 95 87 93 74 79 53 70 55 62 35 48 57 43 70 75 74 60 69
88 87 87 87 86 85 84 82 82 81 80 75 74 74 74 74 74 70 80 93 97 98 98 66 37 44 33 33 43 51 45 38 84 97 98 96 95 91 94 92 90 89 82 87 81 67 68 77 79 59 62 60 59 61
87 86 86 86 86 85 82 81 83 82 82 78 76 75 73 73 78 76 59 75 94 99 98 80 62 45 36 37 33 37 42 42 52 70 91 93 92 92 93 95 96 89 95 97 98 95 96 79 61 56 58 55 56 58
86 87 86 86 86 85 84 83 82 82 82 82 81 80 79 79 80 66 96 90 88 96 98 95 41 42 40 42 40 40 40 44 40 81 92 89 83 93 97 94 87 91 89 92 94 87 77 60 51 44 48 47 46 50
86 86 85 85 86 85 85 85 84 83 85 86 87 87 86 86 77 73 84 78 75 72 96 89 62 71 57 51 35 39 40 40 51 86 85 91 96 98 97 96 87 93 94 88 82 78 86 76 75 54 48 46 49 49
87 86 85 85 85 84 82 81 81 81 83 86 88 89 89 88 87 87 63 66 67 78 93 98 80 78 82 74 43 40 43 56 83 93 96 96 97 98 98 94 94 95 93 93 90 89 96 94 82 70 61 58 62 62
87 86 85 85 84 84 84 84 83 83 85 88 89 90 81 78 69 87 70 72 69 86 97 95 98 98 93 94 90 94 73 88 95 97 96 97 96 97 96 97 97 98 97 94 94 85 76 82 92 86 76 73 76 75
86 86 86 85 84 86 88 88 86 86 89 89 80 66 88 90 80 84 96 98 99 98 94 90 68 95 97 88 92 91 81 94 98 96 97 96 97 96 98 98 98 96 97 95 90 90 84 83 79 82 85 78 74 74
86 86 85 86 86 87 88 87 85 88 88 66 68 64 65 71 90 98 97 98 97 97 91 77 85 95 92 96 90 90 91 96 98 97 94 96 97 97 96 96 96 95 93 92 85 81 80 80 80 80 82 81 86 85
87 87 87 87 88 87 89 85 87 76 66 78 82 73 70 85 91 94 96 96 98 98 92 96 93 96 96 97 96 94 94 90 97 91 92 99 98 97 95 89 90 94 89 88 84 84 78 70 59 64 68 65 67 74
88 88 87 87 87 87 87 85 86 90 84 69 89 80 79 88 99 98 100 99 99 94 92 88 97 98 93 95 96 97 93 97 93 93 98 98 98 97 97 93 86 84 86 77 74 71 64 58 54 54 64 65 62 61
89 88 87 87 87 85 83 84 86 80 74 76 77 98 90 91 92 93 87 97 92 95 91 92 98 96 98 97 94 94 80 84 93 98 99 97 96 94 94 94 92 84 76 72 72 67 74 63 64 65 64 63 63 71
89 89 86 80 80 82 81 82 87 72 72 77 69 100 73 54 56 51 44 83 93 90 71 70 81 77 91 88 89 84 84 99 98 99 99 99 98 95 87 80 75 82 74 74 57 60 65 60 62 62 59 66 66 68
89 87 67 82 78 82 82 79 68 68 74 67 57 53 47 65 59 51 46 45 41 44 52 56 69 75 90 93 94 97 96 100 98 99 98 97 94 94 95 87 84 80 64 63 74 67 62 61 68 70 63 65 58 69
90 77 77 78 84 87 80 63 60 54 45 48 52 42 75 75 66 61 43 43 43 45 59 66 80 97 92 95 97 96 98 99 99 98 98 93 92 92 93 87 86 86 77 72 75 76 73 56 50 56 55 59 52 61
74 58 72 79 87 76 59 61 51 42 42 59 60 51 52 75 79 54 50 48 48 54 58 64 66 83 96 98 98 99 100 99 99 97 96 93 88 83 87 85 78 80 73 79 81 71 50 48 48 60 61 59 47 47
73 76 84 89 88 86 60 44 54 54 47 51 54 52 56 77 76 62 52 53 53 52 57 65 79 94 98 96 95 95 95 96 96 95 92 83 86 90 84 80 74 75 74 64 56 45 44 46 39 37 37 41 45 49
89 90 90 86 82 64 46 56 52 50 54 70 69 73 63 65 62 51 52 54 56 60 68 78 85 90 92 92 91 91 90 90 90 89 81 63 57 67 72 53 52 61 48 55 40 46 37 36 32 34 38 41 39 50
74 66 74 65 64 54 49 52 47 57 62 73 68 63 82 53 55 56 58 55 59 68 82 86 68 58 64 59 63 80 82 88 86 84 76 60 59 56 55 48 45 40 38 38 39 40 41 38 36 34 41 38 38 41
61 77 64 56 54 52 56 53 52 56 65 72 61 59 83 76 63 60 61 60 72 87 85 82 76 53 53 61 56 54 61 78 75 58 55 54 47 45 47 46 40 41 40 40 40 39 38 38 37 34 39 43 44 44
74 76 65 51 58 83 78 53 58 55 63 56 56 61 79 77 79 54 67 72 74 71 58 62 76 71 65 65 55 50 52 59 46 42 42 43 48 49 40 41 39 43 44 43 39 38 39 49 39 37 37 38 41 41
88 70 67 68 65 82 51 63 56 57 54 50 68 72 75 80 63 64 73 64 55 51 52 65 52 50 49 61 44 45 42 35 37 44 42 38 42 48 44 40 36 35 38 38 35 36 37 38 43 34 35 36 37 38
87 84 79 100 75 65 55 47 43 44 48 46 62 81 96 97 88 66 68 73 68 63 56 53 52 51 48 41 34 37 44 33 35 37 40 38 38 36 39 38 36 33 31 36 34 33 36 35 34 34 32 34 38 36
92 68 90 68 69 63 63 56 51 46 46 50 65 91 86 85 66 78 81 72 70 66 57 62 53 46 39 33 33 32 34 32 36 35 39 33 33 35 36 38 36 35 31 32 34 35 36 34 33 34 32 35 47 34
91 90 87 85 91 83 58 60 46 41 42 50 59 58 62 73 78 69 64 61 58 50 49 46 42 36 31 29 29 30 29 31 38 34 34 29 29 30 32 35 38 39 33 31 33 35 33 33 34 33 33 33 35 34
86 88 86 77 73 50 49 44 41 45 44 43 47 56 64 67 73 56 57 54 46 43 41 38 31 24 24 24 25 27 29 29 30 30 27 26 27 28 33 30 34 57 40 38 34 33 33 33 34 34 34 34 36 35
65 56 65 65 39 39 41 43 44 42 42 44 61 64 62 63 54 45 48 45 42 41 30 27 26 23 23 24 27 27 30 30 35 38 36 35 33 31 30 29 29 29 30 31 50 43 40 39 38 35 34 36 37 36
41 31 37 36 39 42 42 36 42 36 40 43 47 51 54 53 44 41 34 32 32 27 26 23 23 24 27 26 28 30 32 33 34 37 36 34 32 30 32 32 31 30 31 32 30 32 52 37 41 35 37 36 37 38
22 23 27 35 35 32 34 35 35 35 38 38 37 43 48 50 50 38 37 37 29 26 25 23 22 26 28 29 31 32 33 35 34 34 32 29 30 35 36 36 33 33 34 34 34 34 35 35 36 37 37 38 40 42
25 29 28 29 39 35 38 42 44 42 41 43 51 47 48 68 72 57 41 35 30 28 38 28 25 28 28 27 29 30 48 33 35 34 36 35 38 38 36 35 35 34 36 33 32 33 34 35 37 38 40 42 45 45
25 24 26 24 35 46 42 43 47 46 41 49 56 59 47 48 50 40 39 32 32 29 29 27 26 28 37 32 32 34 42 35 45 62 64 65 67 56 40 37 39 38 36 34 33 34 38 40 42 44 45 48 50 52

GFSWCAN_sfc_rhum_015.txt.gz
RH
85 82 81 82 82 82 82 81 80 79 77 76 75 75 74 73 75 91 97 98 98 98 76 67 64 77 78 87 90 84 90 90 96 88 91 96 97 79 78 70 77 79 82 92 61 71 78 78 79 89 90 92 78 73
84 85 84 85 85 86 85 84 84 85 80 77 76 76 75 75 76 80 97 95 98 100 90 75 70 65 65 67 73 90 88 91 93 97 99 99 92 94 90 92 79 85 78 92 64 74 74 80 76 89 91 97 95 91
84 84 85 85 86 86 85 85 85 84 82 78 76 75 78 78 77 81 99 98 99 100 81 83 87 72 71 70 60 86 70 73 93 92 98 99 100 95 97 92 80 74 94 80 80 64 80 84 80 84 85 89 86 88
85 85 86 86 86 86 86 85 83 82 82 83 79 78 77 78 82 80 98 98 97 97 99 88 60 70 56 64 71 68 65 71 90 98 99 100 100 94 98 93 97 88 91 74 86 80 80 85 85 87 86 75 78 87
87 88 87 87 86 86 85 84 84 83 84 86 85 82 80 80 84 92 99 97 93 96 99 90 73 74 74 70 65 72 72 71 71 92 99 99 96 95 95 96 97 90 87 92 83 92 90 98 94 79 81 83 74 86
88 88 87 87 86 85 85 85 85 85 87 88 88 86 85 84 87 92 98 96 96 98 99 96 85 79 70 67 75 71 68 72 70 78 95 94 82 96 99 100 94 93 92 96 96 95 92 94 88 81 76 80 83 81
87 87 87 86 86 86 86 86 87 88 88 88 88 88 88 89 98 98 96 90 89 97 99 96 82 80 77 90 84 80 73 78 67 91 94 92 92 94 98 99 92 91 92 95 89 92 97 89 97 88 84 78 72 68
87 87 87 87 87 88 87 88 88 89 89 88 89 90 91 91 94 100 98 91 95 99 99 100 92 87 89 97 88 92 66 70 94 94 94 96 96 98 99 88 90 88 93 93 96 94 87 92 95 95 84 85 84 83
88 88 88 88 88 88 88 88 88 90 89 89 91 90 94 95 99 98 82 88 97 97 99 99 100 99 93 95 96 93 94 95 94 97 97 97 98 99 92 94 94 91 96 98 94 96 85 88 92 87 81 82 87 87
88 89 89 89 89 88 88 88 89 90 90 90 81 81 94 96 78 87 98 100 99 100 99 100 96 99 98 96 96 94 96 97 100 98 97 99 100 92 93 96 97 98 93 91 91 94 92 91 89 91 90 90 86 85
89 89 89 89 89 88 88 89 90 91 85 91 98 91 87 77 96 99 97 98 98 99 97 97 97 98 95 99 96 96 98 98 100 99 99 100 100 98 96 98 99 98 95 95 95 94 92 88 84 87 87 82 83 82
89 89 90 90 90 89 89 89 90 97 98 92 95 92 98 96 94 95 99 96 99 99 97 98 96 98 98 98 99 98 97 98 99 94 97 100 97 97 97 97 97 96 94 94 90 91 88 82 76 71 71 77 74 74
90 91 91 91 90 90 90 89 88 90 94 97 97 95 92 89 99 100 100 99 98 97 96 97 98 99 98 98 97 98 94 98 94 98 100 99 97 97 98 98 95 94 89 90 91 89 87 84 74 72 82 79 75 71
93 93 93 92 90 90 85 88 90 95 95 97 90 96 96 95 94 97 98 96 84 95 91 98 98 99 98 97 97 91 96 92 98 100 100 99 99 98 96 94 90 93 88 86 85 84 84 80 80 76 70 61 60 67
93 94 92 92 88 83 88 92 90 95 94 86 88 100 96 91 87 75 64 76 76 71 91 96 91 86 95 94 94 93 93 100 99 100 99 99 98 94 91 90 90 79 78 80 71 72 84 78 63 56 53 53 58 57
94 93 83 87 85 89 92 92 92 93 87 78 80 90 86 86 75 67 66 74 63 60 74 78 87 90 97 96 94 99 99 100 99 99 99 98 97 96 92 82 71 59 43 41 46 43 46 50 56 58 48 50 55 56
94 94 82 85 89 93 90 86 79 68 78 76 88 93 96 96 95 75 59 53 51 72 77 90 95 99 93 96 97 99 99 99 99 98 97 96 96 95 84 69 66 67 55 38 37 40 41 40 41 46 52 56 56 55
97 90 83 87 94 95 90 80 65 63 72 88 91 91 93 92 86 65 63 49 57 64 82 88 84 85 97 98 98 99 97 96 96 97 95 94 94 94 89 76 67 60 51 61 51 40 43 46 51 56 57 60 59 60
94 89 89 92 95 95 87 68 65 69 71 85 89 86 87 89 78 66 57 52 46 55 76 76 78 95 96 97 96 93 95 97 97 97 94 85 88 77 77 71 60 47 47 49 46 47 48 50 55 58 60 61 67 68
90 90 90 90 91 85 64 74 75 70 78 84 90 87 89 87 84 73 64 61 66 77 64 77 75 83 92 87 93 96 94 96 93 87 67 56 53 54 53 54 54 52 50 47 46 54 50 52 55 64 66 67 67 71
90 87 87 90 92 85 74 78 75 78 81 84 91 89 92 90 81 75 69 72 66 82 88 97 85 59 57 47 46 55 74 89 92 87 81 59 52 48 50 49 48 50 52 51 49 48 50 53 54 54 71 73 72 63
96 89 93 89 83 81 85 85 76 86 81 84 90 93 92 92 93 90 88 90 91 95 95 94 91 92 66 62 62 52 60 76 78 62 61 54 47 46 48 51 49 51 54 59 55 54 52 54 56 55 56 70 63 56
91 90 94 87 82 80 73 93 81 82 90 96 95 84 86 85 92 85 92 91 88 89 88 83 88 84 71 67 59 60 63 67 74 75 58 54 53 50 46 45 42 45 47 46 51 53 54 61 56 58 58 60 60 55
90 92 89 90 90 91 87 80 91 91 96 97 94 94 93 92 93 91 94 95 92 91 87 86 84 73 65 61 66 62 64 65 54 57 67 52 50 56 56 57 57 57 57 57 54 53 53 55 61 53 54 54 56 59
78 82 86 91 89 81 75 75 73 76 81 92 93 93 93 95 92 93 96 95 96 95 93 89 82 70 68 67 63 58 54 62 55 55 58 60 58 54 54 56 58 61 58 50 52 52 55 57 57 52 52 55 57 55
85 85 82 86 89 82 88 79 76 76 75 81 88 94 94 90 88 92 95 94 94 93 90 91 85 60 62 62 58 54 55 55 51 49 52 56 57 54 56 58 57 53 59 53 48 50 50 53 52 49 50 52 64 53
74 74 87 95 92 94 90 85 79 70 66 76 82 85 78 86 87 84 90 90 92 73 78 63 56 56 57 59 56 53 50 48 51 50 53 54 56 58 57 56 56 56 57 50 48 48 50 52 52 51 51 53 54 54
76 87 69 85 93 95 79 69 68 72 72 75 82 85 78 72 69 78 82 80 87 66 50 50 54 55 56 56 56 54 51 50 43 44 46 49 54 57 58 57 59 70 60 52 50 54 53 54 54 52 49 51 55 56
81 92 87 80 83 80 67 65 67 72 74 86 87 90 88 91 82 82 79 76 52 44 47 49 54 56 57 58 57 56 53 51 48 51 55 62 64 60 63 60 58 57 61 50 67 65 50 52 52 52 52 56 58 59
80 91 82 76 64 63 66 67 67 69 76 81 83 88 88 87 82 84 61 48 44 40 40 50 53 56 61 60 59 59 58 58 57 54 59 65 64 65 66 62 61 62 62 58 51 49 63 56 61 60 62 65 68 68
74 80 67 63 60 67 66 64 76 78 74 66 75 78 79 80 78 71 51 47 45 44 48 51 54 57 60 62 60 59 60 56 57 56 61 64 65 64 64 64 65 66 65 61 55 56 60 63 65 67 66 68 69 74
53 52 58 64 69 72 62 68 70 77 78 73 76 76 76 88 87 87 64 50 47 50 58 55 53 54 54 56 58 59 64 53 55 53 55 58 60 60 62 63 64 64 63 62 62 63 62 65 68 69 73 72 75 76
48 51 52 70 74 68 73 78 81 83 82 79 84 78 86 86 85 75 60 52 45 49 53 53 54 54 53 54 54 55 60 53 56 64 63 63 62 62 64 64 62 61 62 62 64 64 64 66 71 70 71 73 75 77

GFSWCAN_sfc_rhum_021.txt.gz
RH
83 80 79 81 83 83 85 84 84 84 81 79 78 78 77 78 88 94 89 94 98 98 83 70 66 71 66 75 88 59 70 74 90 87 78 66 77 58 60 37 38 54 65 68 48 47 47 24 29 39 62 65 65 66
84 83 82 82 85 86 85 85 84 85 84 83 80 79 81 84 85 91 99 95 95 100 86 60 59 57 58 55 66 88 75 73 79 92 90 92 74 67 71 65 46 57 45 64 40 34 35 36 49 57 67 71 69 72
86 86 86 86 86 86 85 85 86 86 86 86 81 83 83 85 85 92 100 99 100 100 82 64 61 48 51 57 49 78 69 58 68 70 90 93 95 82 90 67 64 53 56 66 52 37 39 39 40 44 62 69 66 70
86 85 85 86 86 86 87 87 87 87 87 87 82 84 84 86 86 87 100 99 99 98 99 75 48 57 46 50 58 54 51 52 70 92 99 100 99 83 89 67 80 63 61 61 61 55 52 41 39 47 62 63 71 75
86 86 87 87 87 87 86 88 88 88 88 88 86 86 86 87 89 93 99 98 96 98 98 84 64 52 49 54 61 59 60 62 76 97 99 97 94 94 86 85 87 60 68 70 54 53 69 67 60 61 62 68 74 81
88 88 88 88 88 88 88 88 88 88 88 88 87 88 87 88 88 90 94 90 95 99 99 98 58 64 56 60 63 70 67 70 77 84 84 85 63 92 99 97 59 59 59 61 71 61 66 65 66 60 64 72 78 83
87 87 87 88 88 88 88 89 89 89 87 87 89 89 90 90 95 95 96 95 95 98 98 98 82 59 57 67 75 76 70 77 88 99 98 83 71 91 99 96 65 57 64 64 60 70 72 66 70 60 80 76 89 86
88 87 88 88 88 89 88 89 89 90 89 88 89 91 90 93 93 98 96 95 96 99 97 99 96 85 79 79 88 75 81 84 93 95 89 86 88 96 99 84 73 77 85 89 83 71 74 72 72 93 95 85 91 72
87 87 88 89 87 86 87 89 89 90 87 87 87 88 76 78 96 96 84 93 99 97 100 100 100 98 86 93 96 99 97 100 96 99 96 96 98 99 92 90 86 82 87 81 77 75 74 85 81 93 97 90 82 73
89 88 88 85 86 86 87 88 91 93 92 84 78 64 82 86 80 87 97 98 98 98 98 100 99 100 98 94 95 96 95 98 100 98 97 100 100 93 92 90 92 91 91 90 95 92 88 92 82 96 96 89 82 76
88 88 85 86 87 87 89 92 93 92 84 74 85 76 75 82 96 97 97 98 98 100 99 98 98 99 96 99 98 97 99 100 100 99 100 100 100 97 95 97 98 97 94 82 81 82 90 93 92 96 93 88 77 79
86 86 85 86 91 93 92 89 90 88 88 92 95 93 89 82 92 90 99 97 98 99 96 98 96 97 97 98 98 96 99 100 100 96 99 100 99 97 96 96 96 95 92 93 85 90 91 97 92 93 92 95 92 78
86 85 87 91 94 92 87 92 94 90 92 83 81 78 83 91 98 100 100 99 98 94 86 92 96 97 94 94 96 98 95 98 93 97 100 100 97 96 96 93 92 92 91 91 93 94 94 94 91 93 96 91 78 71
86 87 90 93 93 86 92 94 94 87 74 74 85 99 89 97 95 96 97 95 83 85 81 92 93 94 92 87 88 95 90 89 94 100 100 99 98 96 93 93 93 95 93 93 94 90 86 87 89 86 83 78 66 67
87 91 93 83 86 91 93 93 90 74 69 77 81 99 82 76 74 70 81 84 61 50 74 88 78 74 86 86 91 92 87 100 100 100 98 96 92 89 88 84 80 83 88 90 89 88 86 85 88 89 84 75 69 67
90 88 69 85 90 92 93 81 66 65 79 69 69 72 66 56 56 58 62 59 46 54 61 60 72 75 87 91 94 98 99 100 99 98 98 94 90 86 78 70 69 68 69 73 76 78 71 65 68 74 68 67 68 72
93 66 80 88 92 92 86 58 58 66 65 63 66 71 82 80 75 57 53 52 52 50 68 67 88 99 93 96 98 97 100 98 94 92 90 86 84 78 65 62 62 63 66 66 65 66 64 58 57 60 66 64 59 63
75 70 86 91 92 84 61 59 55 57 63 73 62 59 62 71 69 58 57 53 49 54 58 74 66 96 99 100 99 96 97 96 82 80 69 68 73 75 60 59 62 62 61 62 61 60 61 59 56 53 56 54 52 52
82 84 91 93 89 73 58 57 59 63 62 60 66 63 63 69 62 54 50 53 54 56 56 60 68 85 86 85 83 81 80 85 80 67 53 61 64 63 59 51 51 52 52 55 54 51 55 62 54 46 43 44 46 43
91 90 90 89 83 59 54 65 61 57 58 73 80 57 56 58 56 48 48 51 52 47 55 61 65 64 69 60 72 73 70 72 59 46 46 45 43 50 53 46 42 42 36 42 38 56 46 47 47 45 46 46 44 44
79 78 85 80 69 62 59 59 60 62 62 68 75 65 71 61 58 55 54 51 50 65 61 78 57 54 61 59 56 56 56 54 54 52 53 42 41 40 36 34 34 31 32 33 34 38 51 51 47 40 39 39 37 36
75 86 74 74 67 63 66 70 63 69 69 77 78 72 77 69 65 63 61 56 64 82 81 68 56 52 51 61 61 62 62 60 56 44 54 48 36 36 35 33 30 31 32 35 37 40 47 45 39 36 36 36 38 34
85 81 74 68 65 76 84 84 72 73 75 78 78 72 78 73 77 62 63 63 69 67 64 62 69 63 58 57 59 57 59 54 41 40 38 36 37 37 33 33 30 33 32 36 38 42 45 54 44 35 34 33 32 32
85 78 76 74 73 82 70 71 77 81 80 76 76 76 78 85 76 65 70 60 54 60 60 72 56 48 45 55 43 44 47 44 38 38 40 36 33 37 36 33 31 31 35 32 34 38 38 35 45 30 31 30 31 31
82 84 78 99 75 67 64 65 67 68 72 76 74 76 80 84 77 70 65 56 56 56 59 60 48 43 38 39 38 38 45 36 35 35 39 38 35 32 32 32 33 34 31 29 31 31 32 31 31 32 31 31 34 35
82 69 84 64 73 68 71 65 66 66 64 71 75 82 81 75 52 51 58 57 58 55 50 51 46 38 36 38 37 34 34 34 34 32 36 36 37 36 35 35 32 32 33 32 31 31 32 32 32 34 33 38 59 35
69 59 72 81 77 73 73 66 64 54 52 61 69 75 64 60 45 45 51 58 54 50 56 47 43 38 34 33 34 33 31 33 39 37 38 37 37 38 38 39 39 37 39 35 32 32 32 32 32 33 33 33 34 35
64 72 59 71 79 68 66 60 56 50 44 55 62 65 58 49 39 40 47 54 54 47 40 39 37 32 30 32 32 30 30 29 31 32 32 33 35 35 40 36 36 68 40 37 33 32 32 33 33 34 35 36 38 40
68 64 61 62 64 67 66 56 46 42 45 50 59 52 50 52 47 46 56 48 39 34 34 37 39 35 35 35 33 31 30 29 34 38 40 39 37 36 37 37 36 36 34 31 72 58 44 36 36 36 40 40 42 44
60 64 59 59 59 53 47 47 61 58 52 50 54 58 57 64 62 59 53 42 36 34 33 35 34 33 32 33 33 34 31 30 31 34 38 40 39 36 38 39 40 39 37 33 31 36 66 44 50 39 43 42 43 44
63 66 62 58 56 50 52 52 62 68 69 64 60 54 68 73 65 72 78 56 34 34 34 33 33 33 33 34 36 36 34 32 34 36 35 33 33 36 38 39 38 38 38 36 36 36 38 41 42 46 48 50 50 51
65 66 61 57 51 55 55 51 48 53 63 65 64 65 70 75 77 78 70 48 38 36 48 36 30 31 33 32 35 36 61 30 33 33 39 35 35 37 36 35 36 36 39 40 40 40 44 47 48 50 49 50 49 49
46 47 51 52 56 56 53 59 60 62 60 58 62 65 63 58 67 68 59 41 34 29 32 32 31 33 40 36 38 38 56 35 44 68 70 71 76 61 40 36 36 38 40 41 42 44 48 52 51 52 52 50 48 50

GFSWCAN_sfc_rhum_024.txt.gz
RH
86 85 84 84 84 84 84 84 85 85 84 82 81 79 80 81 83 97 98 97 98 98 74 54 48 58 60 66 76 48 53 56 58 75 49 32 37 37 32 25 26 31 32 29 30 32 32 15 18 32 47 47 41 41
84 85 85 84 84 85 86 86 86 86 87 84 81 82 83 84 86 90 100 98 97 100 82 56 51 51 51 53 64 80 49 51 41 65 80 71 53 46 49 38 26 34 26 27 26 25 26 20 24 27 28 35 43 41
84 84 85 85 86 86 86 87 87 87 87 83 82 83 84 86 86 89 100 99 100 100 87 73 47 36 35 38 38 77 60 48 46 40 57 68 77 44 64 44 44 35 30 35 33 28 30 28 25 24 28 33 31 35
85 86 86 86 87 87 87 87 87 87 87 82 83 85 86 87 88 86 99 99 98 98 99 54 36 41 35 33 38 43 42 44 48 60 88 96 95 48 56 42 42 32 37 43 44 38 31 27 30 30 30 34 38 36
87 87 87 87 87 87 87 87 88 88 83 85 86 87 87 87 89 86 97 93 91 98 98 76 56 39 35 38 42 45 49 51 66 94 99 99 88 80 52 55 53 40 45 44 41 33 36 37 31 42 44 45 44 42
88 87 86 87 87 87 87 88 88 87 88 87 89 88 87 86 88 63 74 73 96 98 99 94 46 48 44 47 49 54 55 56 61 83 71 66 53 85 97 87 44 36 36 40 41 36 35 38 38 41 45 42 38 41
86 86 87 88 88 87 88 88 88 85 88 90 91 90 90 90 73 72 85 91 95 97 98 98 79 49 53 60 61 65 69 78 81 98 99 79 60 90 98 86 48 40 43 48 47 49 58 43 46 41 44 44 44 50
87 87 86 89 84 86 88 87 86 87 89 90 89 87 93 91 87 94 94 94 94 97 96 99 95 88 86 94 97 95 96 97 98 98 98 98 96 98 99 69 66 67 65 62 67 64 58 51 48 54 61 58 72 87
88 86 89 83 85 88 88 88 88 90 92 91 86 87 68 68 82 95 87 90 98 97 99 100 100 100 90 92 94 98 96 100 96 100 98 98 99 100 95 94 94 89 88 82 77 77 68 65 57 63 61 70 86 92
88 86 86 84 88 86 90 92 93 91 92 84 73 51 61 64 88 89 98 96 96 96 97 100 98 99 97 95 95 96 96 99 100 98 98 100 100 97 98 97 97 92 85 81 87 89 85 74 61 63 79 84 87 92
85 83 86 86 88 90 92 93 90 93 91 54 51 53 56 81 96 87 85 95 95 99 98 95 96 98 91 98 97 96 98 99 100 99 100 100 100 98 93 95 96 90 85 81 78 84 80 73 77 86 89 96 91 88
85 85 88 90 91 93 93 91 92 66 62 73 71 80 62 57 63 74 93 89 92 95 85 97 95 96 94 94 99 97 98 99 98 90 97 100 100 95 93 95 95 94 93 92 89 94 90 90 94 96 96 96 92 92
88 87 90 92 93 93 92 94 94 88 83 59 68 72 58 71 97 100 100 98 89 73 68 72 88 85 76 91 82 74 77 88 72 94 100 100 95 91 94 94 92 92 90 90 92 93 92 93 93 93 95 95 92 94
86 88 90 93 90 90 93 94 91 80 59 52 59 98 70 74 84 94 91 76 60 58 47 51 68 72 65 75 77 79 68 55 73 100 100 98 93 90 86 88 91 94 93 94 95 93 93 91 92 90 89 86 82 87
89 90 92 80 87 92 93 90 86 45 41 51 50 92 67 53 42 42 43 45 41 40 46 44 41 36 51 64 69 74 82 100 100 100 94 90 83 81 75 77 78 82 86 90 89 89 87 87 88 91 88 86 83 80
92 89 61 83 91 93 93 65 42 37 46 42 48 50 45 42 38 36 40 39 36 36 41 39 52 63 64 74 94 98 99 100 99 89 77 62 71 65 64 63 63 64 62 61 61 67 68 66 68 74 71 81 80 70
96 47 85 88 92 92 80 39 36 43 42 45 43 36 39 42 43 39 36 36 34 37 44 46 75 95 76 88 98 97 99 97 92 70 54 65 69 63 56 55 55 53 54 59 59 55 55 52 51 52 57 56 52 54
54 53 82 89 88 63 39 38 36 39 47 41 44 47 41 39 39 36 34 34 38 42 44 49 42 63 87 93 80 78 88 90 64 57 56 58 64 64 53 53 52 51 52 51 49 48 47 45 44 41 47 46 42 43
70 75 88 93 83 55 39 42 42 44 40 37 38 38 39 38 34 33 33 33 31 32 35 36 48 62 54 45 45 40 40 45 46 42 47 55 56 55 49 43 41 41 40 42 44 39 39 46 40 34 33 34 35 34
94 90 89 90 80 42 42 47 46 42 42 43 41 40 41 44 33 32 33 32 32 35 40 43 42 39 38 39 38 37 35 34 34 38 37 35 32 38 42 37 30 32 27 31 28 47 34 35 33 34 33 35 34 34
75 66 78 69 49 43 42 42 44 45 42 44 46 46 45 38 37 36 36 31 35 38 41 39 36 34 47 47 40 36 37 39 35 34 36 30 28 28 28 26 27 24 24 25 26 30 40 35 33 31 31 30 29 28
55 84 56 57 48 49 49 50 48 49 49 47 49 47 46 44 42 38 34 36 41 42 41 41 40 39 38 50 48 50 52 50 45 33 46 37 29 29 28 26 25 25 24 27 29 32 32 31 30 29 28 28 31 27
81 70 54 51 53 67 73 55 59 55 61 55 50 51 52 48 50 44 36 37 40 41 40 39 51 56 50 47 50 47 46 42 30 30 30 27 26 29 26 26 24 26 27 28 28 30 32 48 34 28 26 26 26 25
88 62 58 55 54 69 51 54 52 57 58 54 57 58 54 54 50 41 37 34 34 36 36 50 34 29 33 48 29 32 33 28 26 26 28 27 26 27 27 26 24 23 25 24 24 26 25 26 38 24 25 25 26 26
80 73 65 99 57 52 44 44 49 46 46 55 56 53 54 56 54 42 37 30 31 33 33 32 30 29 28 26 25 28 36 26 27 29 28 27 27 25 24 23 24 26 23 24 25 25 26 25 26 28 28 28 31 30
88 55 79 48 54 51 46 43 42 40 36 50 51 52 51 53 41 37 32 31 33 32 32 33 32 29 26 27 26 25 27 26 28 28 27 26 27 27 28 28 26 26 25 26 26 26 27 27 27 30 28 33 53 32
65 46 47 51 49 48 50 43 42 37 36 40 41 52 47 44 35 30 30 32 32 32 35 30 29 28 28 26 27 27 26 27 32 30 28 27 26 27 28 30 33 30 28 27 26 26 27 28 28 28 28 27 29 31
46 49 47 48 52 42 47 44 42 38 30 30 35 44 41 35 36 30 28 33 32 33 26 27 27 24 24 25 24 24 24 23 24 24 22 25 25 25 30 26 27 63 33 28 28 27 28 28 28 29 30 31 32 32
51 41 41 49 45 43 45 41 35 26 27 29 36 34 33 32 32 30 40 37 33 34 33 32 28 25 25 26 26 24 24 23 28 34 35 30 30 29 27 27 27 26 26 26 80 50 39 33 33 33 34 34 34 35
42 39 43 42 44 38 32 30 33 32 28 28 32 36 35 34 39 38 40 48 78 45 41 32 27 28 26 26 25 26 23 22 24 28 31 33 31 28 29 30 29 27 26 26 26 31 63 45 47 37 39 40 38 39
39 42 46 41 36 31 34 33 36 38 38 34 33 38 36 43 43 45 47 59 52 32 30 29 28 25 25 25 26 26 24 25 29 31 29 26 26 29 31 31 29 30 32 33 34 36 37 40 40 42 42 44 44 44
40 45 40 39 30 35 40 37 34 36 37 42 37 38 41 48 56 57 43 40 38 31 39 31 26 28 26 23 24 25 62 24 26 27 33 28 30 32 30 29 28 31 35 37 39 39 42 45 45 47 48 49 46 44
34 32 37 34 34 40 34 39 42 45 41 41 46 46 43 44 58 52 39 31 28 25 26 26 26 27 33 29 30 29 47 26 45 62 59 67 71 59 37 31 30 32 37 40 40 42 47 50 52 54 52 52 50 48

GFSWCAN_sfc_rhum_027.txt.gz
RH
84 84 83 82 83 84 84 85 86 86 84 82 80 81 82 82 83 94 98 97 98 98 82 59 49 62 53 53 68 43 44 40 33 57 46 38 22 32 30 22 24 28 28 29 28 32 34 14 14 29 42 37 40 38
84 83 83 84 85 85 86 86 86 86 86 82 80 82 84 86 87 89 99 98 97 99 80 50 48 46 46 45 56 61 47 48 47 58 76 63 32 29 33 31 19 30 27 23 24 24 24 20 22 18 21 29 30 34
84 84 85 86 86 86 86 86 86 86 86 84 82 84 84 87 87 90 99 99 99 99 89 71 51 40 33 36 36 78 53 43 42 38 50 44 61 34 52 29 29 31 26 24 28 25 23 21 19 20 22 23 24 25
85 86 85 86 86 86 87 86 86 87 87 85 84 84 85 88 88 88 98 98 98 96 99 61 31 38 32 34 34 39 43 43 44 40 70 68 71 36 45 45 40 28 28 30 29 27 26 24 24 22 21 22 25 28
87 86 86 86 86 87 87 88 89 88 87 86 86 86 87 86 88 73 96 81 81 98 98 81 51 36 33 34 40 40 46 52 54 73 79 70 44 47 37 38 37 26 32 34 33 29 31 32 26 24 24 27 32 35
87 85 85 87 85 88 88 88 88 85 88 88 88 88 87 86 89 69 88 87 92 97 99 92 44 54 49 42 47 50 49 54 62 91 77 65 46 73 92 73 39 33 32 34 34 29 28 29 25 24 25 28 31 31
85 86 87 87 88 89 87 87 87 86 89 90 91 89 87 85 56 67 72 66 91 96 97 97 92 72 65 65 81 85 80 95 96 98 98 96 93 96 99 82 45 43 51 47 41 46 49 35 43 32 30 30 34 30
86 88 89 89 85 85 86 87 85 90 90 90 88 87 88 87 82 74 73 88 88 95 94 99 96 91 87 90 96 95 96 97 97 98 98 99 97 98 100 80 78 80 72 64 50 45 46 40 41 43 42 42 38 44
88 89 85 83 87 88 88 89 89 92 91 90 82 86 65 77 72 93 86 87 93 94 99 100 100 100 90 92 93 97 97 100 96 100 99 99 100 100 98 98 96 93 93 79 59 62 60 52 50 50 48 44 45 56
89 90 85 88 88 90 91 92 93 92 93 82 73 67 70 59 84 85 96 92 94 95 96 100 95 98 93 94 95 96 97 98 100 97 96 100 100 98 97 96 95 77 80 74 78 82 79 78 65 60 58 46 48 58
89 84 85 88 90 92 93 93 92 93 84 58 43 46 53 82 90 82 74 78 76 95 91 88 91 98 88 97 97 95 97 98 100 94 98 100 100 99 93 94 95 83 66 64 65 69 70 76 73 71 62 54 55 79
88 85 88 88 90 92 93 92 92 65 45 63 56 57 48 57 52 57 77 64 74 85 63 74 64 86 89 90 98 88 87 87 90 58 88 100 99 93 93 94 93 94 93 95 89 89 92 92 78 84 95 92 94 94
88 90 89 91 92 93 90 94 93 85 80 52 48 54 52 53 90 93 100 95 84 55 48 51 59 48 66 88 82 63 49 63 36 72 100 98 91 87 88 88 90 92 92 92 94 93 92 92 92 94 96 93 91 91
92 92 92 93 93 89 93 93 89 80 65 35 41 98 59 63 57 73 68 52 39 40 38 47 57 38 39 53 49 75 47 46 75 100 100 92 82 75 74 75 78 81 85 92 94 93 94 93 95 94 92 91 91 94
94 94 93 85 87 90 92 91 87 55 31 40 38 81 51 34 30 29 30 31 31 29 32 42 36 29 38 51 58 57 68 100 99 98 82 55 74 66 62 59 59 63 64 66 77 90 92 92 90 89 85 85 83 79
94 89 61 85 87 90 90 64 39 28 31 33 33 34 28 27 25 24 28 31 28 28 42 36 43 49 42 47 78 89 97 100 98 67 45 51 65 63 60 56 58 51 53 48 47 51 59 68 76 80 74 72 74 69
96 40 87 87 89 90 81 37 30 36 35 35 31 27 29 28 28 27 27 28 26 30 34 36 54 60 43 50 80 86 97 96 55 45 43 62 67 62 51 48 50 48 52 49 48 49 46 45 48 50 58 56 48 51
47 43 80 88 85 61 30 30 31 32 39 32 35 33 29 26 28 27 26 27 28 33 33 40 35 48 57 67 63 47 53 84 53 39 41 52 57 54 45 45 43 45 44 45 45 43 42 40 40 35 40 40 38 39
63 71 86 94 83 60 34 34 35 35 32 29 29 27 28 27 26 26 24 25 27 26 28 32 47 52 49 44 41 34 32 30 32 42 42 50 43 42 43 38 35 34 34 35 36 31 35 40 33 31 29 30 31 30
96 95 93 89 80 39 37 37 36 34 33 34 30 31 33 30 26 25 25 25 26 27 32 33 33 31 32 33 32 31 30 30 28 29 30 26 25 32 35 30 24 28 22 28 25 40 26 27 26 28 28 30 29 30
82 61 76 65 39 36 34 32 33 34 32 38 32 32 33 28 27 26 28 25 29 31 33 31 30 32 39 39 34 32 33 33 33 30 30 25 25 24 24 22 23 20 21 22 24 27 33 27 26 24 25 25 24 23
46 83 49 50 40 39 38 35 36 37 37 34 33 33 33 34 32 31 28 29 33 32 32 32 33 34 33 47 40 42 43 44 38 30 45 33 24 25 24 22 21 22 22 24 26 26 26 25 26 23 23 23 27 23
78 66 45 40 45 60 61 38 42 37 43 39 34 36 35 35 35 34 29 28 29 31 32 34 40 43 44 39 41 40 38 38 26 24 25 24 22 23 23 22 20 22 24 24 23 23 24 42 28 23 22 22 22 22
88 53 49 42 41 57 37 39 35 36 38 37 38 42 37 38 35 33 30 27 28 28 30 44 30 26 28 46 27 26 30 24 22 22 23 24 22 23 22 21 20 21 22 21 20 21 22 23 36 22 23 24 24 23
77 65 60 99 42 38 32 32 33 32 34 34 40 37 36 38 38 32 32 26 26 27 29 29 27 24 24 24 20 22 32 22 22 25 23 23 22 21 21 20 21 22 20 22 22 22 23 22 23 24 24 25 28 27
86 44 74 34 36 38 32 36 33 33 30 34 34 33 36 39 39 32 29 28 29 31 31 30 31 28 26 23 23 22 23 22 25 24 24 22 23 24 25 25 23 26 22 22 23 23 24 24 24 26 23 29 52 29
60 35 32 32 32 31 34 28 28 30 31 30 27 32 36 45 37 31 27 30 32 34 44 36 32 32 28 25 24 23 22 23 28 27 24 24 22 23 24 26 28 28 24 23 23 24 25 26 26 25 25 26 27 29
35 34 37 33 33 29 34 33 33 34 27 24 27 37 42 36 39 30 29 31 34 42 67 32 42 28 28 27 22 20 19 18 20 21 19 20 21 21 26 22 24 57 27 25 24 24 26 27 29 30 31 31 32 35
38 34 27 34 33 32 33 34 29 30 24 22 29 29 29 27 28 27 31 30 31 45 37 37 32 23 26 23 23 20 19 18 23 29 30 25 25 24 23 23 23 22 22 26 66 45 34 30 33 32 33 32 34 33
42 26 31 34 33 29 32 23 22 19 21 24 24 26 27 31 33 30 32 35 45 39 32 39 25 25 25 22 20 20 18 19 20 23 26 27 25 23 25 26 26 26 27 26 28 31 59 38 46 35 36 33 35 32
25 26 30 29 29 23 20 18 19 22 26 26 24 28 26 34 39 39 37 38 37 32 28 25 23 21 22 21 22 22 19 21 27 28 26 23 24 27 28 28 26 28 30 31 31 33 33 35 36 39 41 43 43 42
30 32 28 30 25 20 24 24 22 23 22 28 27 28 30 38 61 46 37 33 30 27 45 30 22 23 22 19 19 21 56 22 23 24 30 27 28 29 27 26 28 28 32 34 34 37 38 39 39 44 44 44 43 44
25 22 24 24 26 25 20 23 27 30 27 28 35 37 31 37 52 41 32 28 27 24 23 22 21 23 27 24 26 25 46 27 45 66 63 64 69 55 35 28 29 32 35 36 37 42 44 46 45 49 48 46 45 44

GFSWCAN_sfc_rhum_030.txt.gz
RH
86 85 84 83 83 84 85 85 86 86 82 80 82 81 82 83 84 94 98 98 98 98 84 67 59 67 66 54 70 46 46 58 72 86 73 80 63 37 30 31 36 28 34 32 30 36 44 23 23 38 49 39 35 37
87 86 85 84 85 85 85 85 86 86 86 83 83 83 83 85 86 89 99 98 97 100 82 61 62 55 55 52 65 54 53 50 41 65 79 56 46 35 45 39 27 34 29 29 28 28 39 26 27 24 23 30 29 33
87 86 86 86 86 86 85 86 87 88 87 85 85 83 83 87 87 90 98 99 100 100 93 80 64 51 52 44 35 64 50 45 43 45 43 40 57 35 52 35 50 44 31 30 33 29 30 23 19 19 21 23 27 23
87 86 86 86 85 86 87 88 88 89 88 85 85 85 86 88 88 87 98 96 98 98 99 71 40 53 41 35 38 37 43 46 44 41 52 65 68 38 42 38 36 29 32 38 36 28 26 24 23 22 22 22 24 24
88 86 86 86 86 85 88 88 87 88 86 86 87 87 87 85 88 73 95 82 88 99 99 84 56 45 51 50 42 39 39 45 47 64 59 65 49 52 39 38 37 27 32 31 34 34 42 42 30 23 24 24 24 26
86 85 86 87 88 89 86 87 87 87 88 88 89 88 86 85 84 74 96 88 87 98 99 95 59 72 64 62 52 62 86 91 93 96 92 81 55 88 84 68 41 33 35 45 56 50 48 39 31 26 30 28 23 23
85 86 87 88 89 87 84 84 86 89 90 91 91 89 85 82 63 59 69 67 84 94 97 98 96 79 80 74 91 93 91 98 98 98 98 97 95 95 100 88 57 50 51 54 48 50 55 48 42 34 33 33 36 33
86 87 89 90 88 86 88 87 89 89 90 89 88 82 84 91 86 68 65 80 78 90 90 98 92 87 84 92 96 96 96 97 98 98 98 99 98 98 100 88 87 87 86 82 72 56 51 48 46 41 38 37 40 37
87 89 90 90 87 88 89 90 91 92 92 90 78 82 66 74 71 71 83 82 72 76 97 98 100 98 80 91 93 97 97 100 96 100 100 99 100 100 100 100 97 88 83 83 73 70 60 58 53 44 42 39 39 42
89 90 84 86 87 89 90 91 93 93 92 80 71 60 69 56 84 78 86 92 89 82 82 100 88 97 89 91 94 96 97 98 100 96 98 100 100 95 95 93 94 95 69 76 82 75 68 63 55 51 44 41 42 42
90 91 89 90 89 91 92 93 93 93 86 60 58 47 60 80 69 84 71 64 55 79 71 71 79 88 74 94 95 89 94 96 100 80 87 100 100 97 90 91 91 94 89 76 62 61 60 62 62 62 58 57 51 60
91 91 91 92 93 93 93 92 93 77 40 58 50 50 58 60 49 51 68 52 59 73 44 52 75 74 64 75 97 85 86 86 73 45 83 100 99 86 84 86 92 90 88 91 92 95 90 91 89 88 80 90 92 91
91 94 93 94 94 93 92 92 93 87 86 52 50 44 46 46 80 68 100 88 59 48 38 37 69 89 70 68 79 66 42 43 39 74 100 99 91 81 78 77 78 87 87 90 94 93 91 91 92 95 95 91 90 92
91 91 92 95 94 91 90 92 88 78 65 37 38 97 46 48 37 36 37 47 37 36 38 44 51 48 34 42 42 61 41 43 64 100 99 92 85 79 68 63 68 75 82 91 94 93 93 95 96 96 95 90 89 95
91 92 93 85 88 87 88 90 88 60 38 36 34 75 38 24 20 21 23 26 27 26 33 64 38 36 36 43 42 49 58 82 79 89 77 79 79 73 66 58 55 58 62 75 79 90 93 93 93 94 93 93 93 93
92 90 62 88 87 86 88 68 60 32 29 28 28 31 26 24 24 23 26 26 24 25 26 29 40 48 46 42 57 81 89 99 73 73 49 54 71 68 64 58 52 49 51 52 56 64 62 74 84 91 87 88 90 87
96 45 88 86 89 88 80 45 29 32 31 30 28 24 25 26 28 26 25 25 24 27 31 30 46 48 42 48 64 67 84 80 59 63 40 60 74 57 53 46 42 47 50 48 52 52 55 54 52 55 62 58 54 61
57 42 79 88 87 63 31 28 28 28 32 28 30 28 27 25 28 26 24 24 27 29 30 37 32 46 57 58 53 41 38 33 41 39 40 51 64 50 41 43 42 41 40 46 46 46 48 46 48 47 51 52 48 47
67 74 88 95 86 67 32 30 35 32 29 26 26 25 26 26 26 25 24 25 25 24 26 29 35 38 41 37 37 34 32 33 31 32 41 47 52 48 44 38 35 34 32 38 39 30 34 46 36 31 30 33 33 34
94 95 94 93 84 48 32 33 34 33 30 31 32 29 29 28 24 23 24 25 26 26 31 32 33 32 32 35 34 32 33 34 32 31 30 27 25 36 37 31 25 31 24 29 29 39 28 27 26 28 26 28 27 28
71 61 73 63 47 40 32 28 36 31 31 37 32 29 30 26 26 26 27 24 28 32 34 31 30 31 40 41 35 35 38 38 38 33 31 27 25 24 25 23 24 21 22 23 25 27 31 28 26 24 24 24 24 23
46 78 47 46 39 34 36 28 32 33 38 37 31 30 34 34 33 31 28 26 31 33 33 34 37 37 36 46 40 42 45 45 45 30 47 33 24 23 24 22 22 22 23 24 24 25 26 24 23 22 22 23 26 22
70 64 46 37 40 58 59 31 41 32 42 36 32 34 33 32 32 30 32 26 27 29 31 35 42 43 43 40 38 41 38 38 26 24 24 24 23 22 21 22 21 23 24 24 22 22 24 40 28 23 23 23 23 23
87 53 47 38 36 54 31 37 29 31 32 34 35 39 39 41 32 40 32 27 26 28 32 43 31 28 29 48 26 26 29 24 22 22 23 24 22 22 22 21 20 21 22 21 21 22 22 23 35 23 24 24 25 24
75 62 63 99 40 35 29 28 28 27 32 29 31 37 37 33 44 38 32 28 29 32 41 44 44 40 38 27 23 23 29 21 23 25 24 23 22 21 21 20 24 24 21 22 23 22 24 22 24 24 25 25 27 28
87 42 74 30 32 31 29 30 31 30 27 26 26 43 37 40 42 45 36 34 33 40 46 48 42 44 43 32 27 24 23 22 25 26 25 23 23 24 25 26 24 28 23 22 23 24 25 25 25 25 25 30 51 31
64 35 31 25 26 26 31 28 29 48 73 43 28 30 43 77 45 39 33 31 34 42 41 40 35 38 39 29 28 22 20 20 28 25 23 23 21 22 24 26 29 28 23 23 24 25 26 27 27 27 27 31 34 31
34 31 33 33 36 27 37 62 65 43 54 39 26 37 47 47 46 39 31 32 35 37 34 30 33 33 26 26 22 21 19 17 18 20 19 21 21 21 24 22 24 57 28 26 26 25 26 28 29 28 31 33 35 32
58 74 52 49 36 34 37 51 41 30 25 28 28 27 26 50 84 42 37 30 29 35 46 39 31 26 23 22 24 22 19 18 22 27 28 26 25 24 23 24 24 25 26 29 65 46 36 32 34 34 33 33 32 33
48 54 44 27 28 31 37 25 34 18 18 20 21 23 38 38 41 32 31 32 34 50 40 28 24 22 22 20 19 20 15 18 20 24 26 27 26 24 26 26 28 27 28 29 33 36 59 40 48 38 36 34 34 36
25 27 26 27 27 24 25 18 16 16 24 29 22 29 38 53 77 39 36 36 32 32 30 25 23 23 22 19 20 22 20 22 27 28 24 23 25 27 28 29 29 29 31 32 34 34 33 35 37 38 41 44 43 43
25 29 28 28 22 18 19 22 20 20 21 24 24 23 34 44 60 43 37 30 25 24 41 28 22 24 23 20 20 22 57 25 27 27 29 27 27 29 27 27 30 32 33 34 38 40 39 41 44 45 44 45 44 43
24 21 22 21 24 25 19 21 24 25 28 38 67 45 28 36 48 38 29 26 26 22 21 21 20 21 25 24 24 24 46 32 49 72 68 68 72 58 34 28 29 31 35 40 45 46 43 45 46 44 44 44 45 42

GFSWCAN_sfc_rhum_033.txt.gz
RH
88 89 88 86 86 86 85 86 86 84 83 84 84 83 83 84 85 95 97 98 98 99 86 76 78 95 91 88 92 77 74 71 86 90 95 98 95 59 57 52 72 48 54 51 46 55 82 36 30 56 56 38 39 41
90 90 88 87 86 86 86 86 84 88 86 85 84 83 84 85 86 89 100 99 98 100 92 82 79 74 80 80 88 79 87 80 65 79 88 69 59 62 51 88 54 71 68 81 53 69 43 51 42 30 31 36 38 43
90 89 88 87 86 86 86 86 87 86 86 85 85 86 86 88 88 90 99 100 100 100 95 92 75 79 84 82 63 84 68 56 69 66 66 71 74 54 63 66 58 41 46 55 54 41 39 36 32 29 31 31 31 32
90 88 87 86 85 87 83 87 86 86 86 86 87 87 87 87 88 87 99 97 98 98 100 79 58 74 56 48 53 59 54 52 54 64 69 79 82 64 72 61 60 47 45 46 45 48 50 45 52 47 36 34 30 34
89 88 87 85 87 87 86 86 86 87 87 88 89 88 87 86 88 83 95 90 94 98 100 92 73 74 58 61 62 62 65 64 64 77 79 81 69 76 68 65 62 47 55 64 70 55 73 63 55 51 49 44 44 43
89 86 85 88 88 87 86 84 85 88 90 90 90 89 87 86 83 89 100 93 86 96 98 98 77 74 66 67 72 84 93 96 97 99 98 92 76 90 94 91 57 56 64 67 75 60 60 57 52 48 50 45 41 48
85 85 88 87 84 86 87 87 89 90 92 92 92 89 83 82 76 73 79 84 81 86 95 94 90 75 73 74 93 95 93 99 98 99 99 98 98 98 100 99 82 83 81 81 77 76 79 63 61 53 52 54 47 46
86 88 87 87 84 84 87 87 89 90 91 90 88 81 86 88 87 74 73 80 77 77 84 94 89 85 79 89 97 96 96 96 98 99 99 100 99 99 100 94 92 89 91 89 81 73 74 69 63 58 55 55 54 52
87 89 91 92 90 90 88 88 89 91 92 89 81 82 78 76 73 74 79 80 76 82 93 98 100 99 89 93 96 97 97 100 98 100 100 100 100 100 100 100 96 96 98 92 78 76 72 77 70 63 61 61 56 58
89 90 92 92 92 93 93 94 89 94 90 81 76 72 76 76 83 79 87 93 92 80 76 100 89 96 85 92 94 97 97 98 100 99 98 100 100 92 88 96 93 95 93 91 90 83 76 75 71 66 65 62 62 61
90 90 91 91 92 95 94 94 94 93 82 70 72 66 74 82 74 83 89 83 72 93 87 88 97 94 81 89 88 88 94 97 100 96 99 100 100 97 82 90 90 91 89 89 87 89 88 93 88 76 69 71 79 80
88 90 90 90 92 96 94 94 93 82 64 69 77 66 73 79 75 64 84 71 72 84 61 82 95 95 89 80 94 91 96 98 85 69 94 100 99 86 80 86 91 91 87 88 87 91 90 94 94 89 85 89 92 92
89 89 90 92 94 94 94 92 91 91 90 65 73 63 69 71 77 76 100 94 70 53 47 71 80 90 90 76 94 87 62 62 56 87 99 100 90 83 76 75 84 86 85 86 89 88 88 91 92 95 96 93 90 92
89 90 92 94 95 94 91 90 88 84 70 72 60 84 64 64 52 46 42 46 41 39 39 54 71 61 63 69 58 68 57 58 74 95 99 94 88 77 72 64 63 73 88 89 89 87 90 92 94 93 96 95 92 95
91 92 93 88 87 88 90 89 87 75 70 52 47 87 51 33 29 31 34 37 36 33 39 56 51 48 51 56 56 60 64 86 90 99 88 86 85 77 71 66 60 55 59 87 87 88 90 90 93 96 96 95 94 92
91 92 69 85 89 87 88 78 81 65 50 43 40 38 35 32 32 31 35 36 33 35 38 45 50 54 50 57 60 77 85 95 84 86 79 76 81 76 75 66 64 61 56 52 76 80 79 83 87 92 90 89 90 91
96 60 88 88 91 89 84 60 54 42 39 43 41 32 36 38 38 36 35 34 37 37 44 47 52 57 56 55 63 67 78 80 73 63 78 81 77 76 68 64 64 63 60 60 60 69 68 64 65 59 63 75 78 80
72 54 77 86 92 75 56 52 39 35 33 36 41 42 41 40 43 39 41 40 41 42 46 45 46 48 57 55 60 57 56 53 52 56 72 74 70 75 58 65 63 64 58 58 62 58 58 54 60 70 62 56 49 56
74 81 89 94 92 80 54 39 48 50 40 38 40 43 43 44 48 46 41 49 53 47 48 48 47 51 54 56 55 51 52 52 48 51 67 66 65 65 61 57 53 57 62 56 60 58 57 54 49 46 43 41 39 38
96 94 93 93 91 64 50 47 52 51 42 47 43 45 44 47 44 41 40 40 46 43 49 46 46 49 50 58 58 57 57 59 54 52 51 49 44 52 59 52 50 51 45 54 44 50 40 40 41 44 40 41 43 41
73 64 78 80 64 67 46 44 51 46 45 48 48 45 45 44 46 44 44 45 44 49 49 49 48 56 66 66 64 64 67 62 60 54 52 44 46 40 48 45 43 40 41 36 38 39 42 40 36 40 41 39 38 39
59 75 55 59 52 42 48 47 45 51 52 47 49 46 50 52 47 48 48 45 49 51 55 56 61 60 64 63 60 60 66 62 67 55 54 47 41 36 36 37 38 37 40 40 41 36 40 38 38 37 37 42 41 38
73 70 58 50 42 69 72 48 51 45 52 48 48 43 46 51 50 48 50 46 51 55 53 59 64 69 66 63 68 67 62 63 50 47 46 37 36 40 32 33 31 38 40 43 40 35 42 48 42 35 37 37 37 42
88 60 59 55 49 70 42 50 47 41 44 48 51 44 44 57 53 56 54 52 46 49 59 70 58 55 60 68 55 54 54 41 35 37 37 34 32 37 37 32 30 31 35 35 35 38 38 39 44 35 37 36 39 42
80 77 74 99 50 47 37 38 39 81 90 83 65 47 52 62 94 80 55 49 47 50 57 59 56 53 50 48 39 42 47 33 35 39 38 36 36 31 32 34 36 33 30 32 33 34 38 37 39 37 35 36 45 42
91 52 75 38 39 38 32 42 59 74 71 68 48 42 56 85 82 76 61 56 55 54 52 52 50 48 50 50 41 36 40 37 45 39 42 36 35 33 36 38 37 39 32 33 35 33 35 35 34 36 38 39 53 39
72 48 47 42 36 36 78 76 56 59 56 63 49 42 49 53 76 93 97 73 62 53 54 49 47 43 45 45 44 39 34 40 45 42 39 38 33 36 37 37 39 43 36 31 32 33 35 37 36 36 41 43 41 41
45 61 52 51 52 41 62 67 63 77 64 46 41 37 37 54 77 88 88 56 49 47 44 42 46 38 35 35 33 34 34 30 33 33 29 30 30 32 38 33 39 56 43 42 39 36 36 37 38 38 40 45 48 44
46 59 50 50 45 41 64 53 50 47 41 37 39 36 48 54 67 67 54 47 38 41 43 40 40 33 30 33 37 30 27 23 30 35 35 35 35 32 32 32 33 38 42 40 60 51 47 46 47 47 44 43 49 52
43 43 47 42 46 51 40 30 33 27 31 26 42 62 61 74 64 75 58 45 46 40 37 37 32 31 27 23 24 26 25 26 28 31 34 38 35 31 34 36 38 38 40 43 45 44 58 48 54 48 45 46 47 48
31 39 44 38 41 31 23 22 29 24 42 70 80 89 88 87 76 61 42 41 35 34 32 27 27 26 25 26 29 30 30 33 34 35 33 29 29 34 36 40 38 39 43 42 43 43 43 46 48 52 50 50 50 49
26 29 32 35 27 22 26 24 23 26 31 49 71 78 67 95 65 64 40 33 30 28 40 29 28 28 25 25 27 29 49 35 37 37 40 37 38 39 36 34 34 39 42 44 44 49 52 48 50 54 53 51 50 49
32 27 28 29 35 33 27 25 26 28 37 46 63 73 74 48 49 42 41 34 31 24 26 25 24 28 37 32 37 39 44 43 58 74 74 76 77 62 40 39 38 38 44 49 46 48 47 45 48 50 50 53 53 49

GFSWCAN_sfc_rhum_036.txt.gz
RH
89 87 86 89 88 87 87 86 84 84 84 83 82 83 84 85 86 96 98 98 99 99 91 87 84 95 93 96 99 88 86 87 94 94 94 99 99 90 90 97 98 98 94 85 75 91 97 61 56 61 49 39 37 47
88 88 88 89 88 87 86 85 85 85 84 84 85 85 86 88 89 89 100 99 99 100 96 90 83 84 92 89 95 89 92 94 87 94 93 93 97 88 75 97 71 96 94 98 93 94 75 83 87 53 49 44 46 42
89 90 89 88 87 87 86 84 84 84 85 86 86 86 86 89 88 90 99 100 99 100 95 95 84 77 87 93 88 97 89 70 81 84 87 81 85 79 86 77 65 63 51 83 66 73 60 80 78 62 50 52 41 41
90 89 87 87 87 86 83 85 85 85 87 88 87 87 87 87 87 88 99 98 97 97 99 84 64 80 63 62 82 82 78 66 64 79 88 93 94 84 84 77 76 61 61 72 65 68 57 60 55 62 53 48 46 44
89 88 87 87 88 84 82 85 86 86 88 89 89 88 86 85 88 89 96 97 97 96 98 97 84 72 66 65 74 74 85 88 95 97 89 92 83 88 95 92 76 67 86 92 86 75 88 71 55 55 58 52 52 55
88 87 87 88 86 83 83 86 87 89 91 91 91 89 88 85 86 96 99 95 94 97 97 98 87 84 84 87 90 94 97 98 98 99 99 96 85 98 95 98 72 76 79 80 89 72 72 74 72 64 58 51 52 54
86 86 88 89 86 84 85 86 86 89 92 92 91 87 86 82 96 97 95 96 91 96 96 96 96 88 88 90 97 97 94 98 98 99 99 99 97 98 99 100 96 89 87 86 84 87 85 80 83 63 57 53 57 56
86 87 90 91 89 88 88 86 85 89 89 90 88 84 87 86 90 95 96 86 91 95 96 99 95 93 89 97 98 98 99 98 98 99 98 100 99 100 100 97 92 89 87 83 87 89 87 77 70 66 66 62 62 72
87 90 90 90 90 89 89 90 86 87 93 90 86 85 93 98 96 97 79 78 97 95 99 100 100 99 95 98 99 98 98 100 98 100 100 100 100 100 100 99 96 95 97 97 87 78 72 74 75 73 73 63 71 68
88 90 88 90 89 90 92 94 91 94 92 84 90 97 97 97 80 82 94 98 98 95 97 100 99 99 92 96 97 97 98 97 100 100 98 100 100 97 92 95 95 94 93 91 95 95 95 84 71 74 72 72 73 78
90 88 88 90 90 91 94 96 94 93 86 94 96 96 98 84 97 94 95 98 97 96 97 98 98 99 93 95 96 93 97 98 99 98 98 100 100 92 86 90 95 92 89 90 86 89 93 95 96 86 86 96 97 97
91 88 89 89 91 93 95 95 94 97 97 87 86 90 97 99 95 88 91 83 84 85 92 94 96 98 98 96 97 96 94 98 92 94 91 100 98 89 89 84 87 95 88 84 82 88 88 92 94 93 93 94 92 93
91 89 90 90 94 95 95 94 91 92 96 96 94 91 81 74 70 80 92 86 88 68 57 75 87 98 99 97 98 99 86 81 82 94 98 99 92 92 88 82 80 89 86 88 87 84 84 88 88 91 95 92 90 92
91 90 90 92 95 95 91 90 90 94 94 95 89 65 70 68 58 59 63 64 62 60 55 63 86 91 94 94 81 81 74 80 90 94 100 95 87 91 85 78 75 76 91 90 90 89 90 88 90 92 91 93 91 94
92 93 94 94 89 90 91 90 89 98 94 92 62 66 57 52 52 50 53 55 52 53 57 72 67 60 70 68 79 69 74 98 97 97 96 95 86 87 76 72 73 69 84 92 90 91 90 88 90 92 91 92 92 91
93 94 86 84 90 88 88 93 96 95 90 71 54 51 52 51 53 52 55 55 54 61 61 63 70 68 60 76 77 92 90 94 98 94 93 89 79 76 81 67 66 69 60 85 91 86 85 90 92 96 94 93 91 88
94 89 88 90 92 91 89 79 86 77 54 51 51 51 53 55 56 58 56 50 60 57 65 63 62 72 70 70 79 90 88 88 86 73 93 82 81 81 73 62 58 60 67 65 87 91 85 79 83 86 86 86 84 83
95 83 81 89 96 94 85 77 65 48 49 53 56 59 54 55 55 55 54 59 54 62 58 56 58 59 69 68 79 78 76 70 70 71 88 86 78 76 57 59 47 56 61 59 62 65 69 69 70 71 63 46 43 48
92 92 93 95 94 96 86 60 60 62 51 52 55 63 59 52 57 57 54 52 63 61 61 64 63 71 78 80 77 78 79 77 69 69 74 62 52 56 65 47 45 56 55 53 61 58 62 54 55 50 46 44 46 51
95 94 95 94 94 94 80 68 68 67 59 58 60 61 58 58 57 57 56 53 57 59 58 62 68 73 76 74 76 78 75 74 76 71 68 64 52 49 61 48 50 49 54 48 47 53 42 42 44 48 44 46 45 49
89 81 88 93 94 90 85 70 59 64 59 64 60 62 67 60 61 70 63 65 60 64 69 69 67 79 74 77 72 79 72 69 66 71 71 71 57 50 49 50 45 47 48 57 48 49 51 48 51 52 45 45 47 45
91 81 82 88 78 76 73 70 58 61 68 68 67 66 70 68 76 82 78 66 67 68 67 69 69 78 81 76 70 68 63 57 65 75 63 60 50 48 47 48 43 48 51 56 50 48 48 46 50 48 47 48 52 53
87 89 86 77 68 70 60 69 62 64 67 63 70 80 72 78 76 65 67 68 73 73 66 68 67 67 66 66 76 73 63 66 61 57 50 50 50 52 53 48 47 47 45 48 52 46 48 57 51 46 53 48 51 58
89 85 85 82 65 67 62 68 72 90 82 75 75 72 73 90 95 90 84 85 75 72 72 70 71 67 71 68 74 66 52 48 48 50 52 48 49 52 52 46 46 43 47 48 48 49 51 50 52 47 54 57 58 60
94 85 84 94 77 66 57 55 78 88 83 84 86 75 89 95 93 94 97 97 83 77 90 82 74 67 68 64 50 51 47 45 53 50 50 50 49 50 55 54 49 47 43 46 48 49 53 52 49 49 51 58 55 56
98 75 68 60 62 64 68 68 72 80 88 83 75 76 96 94 88 94 96 96 92 88 82 71 69 71 69 59 53 55 51 51 49 52 49 47 44 45 56 53 51 48 52 52 50 51 49 51 50 51 53 53 65 56
89 63 66 69 67 76 84 91 84 84 80 84 72 70 80 79 84 91 96 97 96 84 73 70 64 66 67 66 51 46 47 51 45 49 48 46 46 48 50 50 50 56 53 49 50 49 49 48 51 53 56 55 53 57
76 71 64 71 66 71 76 88 83 80 82 87 92 90 82 77 80 89 92 86 66 74 66 70 60 57 57 54 41 47 45 44 40 38 43 40 44 46 49 53 55 66 54 53 50 52 55 56 57 54 54 65 66 62
73 79 68 67 61 76 88 77 70 80 87 89 89 93 93 88 85 84 74 76 84 77 70 65 63 52 37 33 38 34 30 35 39 44 48 50 48 46 49 50 54 60 52 50 65 56 47 50 51 55 56 57 62 62
62 68 62 59 58 63 69 65 60 73 85 92 96 97 93 93 88 89 89 79 76 59 48 34 34 33 38 35 38 44 45 43 49 53 58 58 56 52 50 49 55 59 65 63 61 57 59 59 60 56 56 57 58 62
52 65 62 60 55 54 47 52 67 75 80 93 93 96 95 91 92 90 63 53 43 36 37 39 40 40 42 44 51 55 59 54 49 47 45 46 46 49 49 59 63 68 79 67 65 62 58 65 67 64 63 61 57 59
52 59 60 50 47 41 44 49 55 66 79 87 94 92 89 94 86 67 56 46 46 47 52 45 44 47 44 47 48 51 60 52 47 47 55 62 65 61 57 56 61 68 72 76 71 64 58 66 67 67 66 61 60 58
51 48 46 49 47 45 45 44 47 76 80 82 85 89 87 80 69 67 60 52 47 44 45 47 49 46 47 46 50 53 58 59 72 79 79 77 74 68 62 61 57 60 61 67 64 64 63 62 67 64 63 62 60 59

GFSWCAN_sfc_rhum_042.txt.gz
RH
84 88 87 87 86 87 84 82 83 84 86 85 85 84 85 86 87 96 98 98 98 99 91 89 84 96 94 96 100 90 91 90 97 100 99 99 100 100 100 100 100 100 100 100 99 98 99 80 69 82 75 56 55 58
90 88 87 87 87 86 81 80 84 86 86 86 85 84 86 87 87 91 99 99 99 100 96 91 84 88 89 90 99 94 98 94 95 100 100 100 100 99 100 98 95 99 100 100 100 99 89 87 87 74 64 64 64 61
89 88 87 87 88 83 81 82 84 86 87 86 86 85 86 87 88 88 100 99 99 99 98 94 88 82 86 90 92 99 95 83 86 91 99 99 100 100 98 99 99 96 90 99 98 86 86 80 73 64 66 71 62 61
88 86 86 88 88 85 82 81 86 87 87 86 86 87 86 86 88 91 99 98 97 98 98 90 73 84 77 84 90 91 96 94 75 85 94 98 100 93 99 97 98 97 93 99 93 73 79 71 70 71 69 68 70 65
88 87 88 89 88 85 83 84 88 87 86 88 89 87 84 84 91 95 98 98 97 97 96 95 87 82 88 79 76 81 92 94 97 93 99 97 93 98 90 95 99 96 98 99 98 84 90 91 78 71 78 75 73 76
88 87 88 88 88 86 84 85 88 86 82 90 89 86 85 86 90 97 98 98 96 97 96 93 91 86 86 87 84 89 96 98 98 99 99 94 81 99 100 100 97 95 93 96 96 91 89 84 86 81 80 78 73 75
87 87 90 86 87 85 86 86 88 82 83 90 89 84 83 88 96 96 90 88 94 95 95 96 96 90 90 94 97 97 95 99 98 98 99 97 96 99 100 100 96 91 89 87 84 88 85 77 89 86 80 73 73 74
87 88 90 87 86 86 86 86 89 83 84 90 88 86 86 86 87 96 97 92 90 96 98 99 96 92 93 98 97 98 98 98 99 99 98 99 99 100 100 96 91 87 88 87 86 84 88 83 85 88 77 77 77 78
87 88 91 88 87 87 87 88 89 87 93 92 87 85 95 96 98 97 80 85 98 96 99 100 100 99 95 98 98 97 98 98 98 99 100 99 100 100 96 97 96 94 97 95 85 86 87 89 89 76 73 76 75 74
87 88 91 88 90 86 87 88 88 91 93 88 92 97 97 98 80 82 93 96 97 93 99 100 99 99 89 93 92 94 87 89 95 99 98 99 100 90 89 94 94 92 93 92 96 96 95 95 93 93 95 92 79 77
87 88 90 90 87 88 89 90 89 94 83 96 97 98 98 85 97 96 92 95 94 94 97 98 98 99 96 97 94 90 85 90 96 93 94 100 96 90 84 89 93 91 91 94 92 89 89 92 93 93 92 92 92 93
87 88 90 92 93 91 92 92 91 98 97 95 92 95 98 93 91 91 82 80 86 83 90 94 95 98 98 94 94 89 88 96 98 92 96 98 95 82 86 85 87 90 87 90 91 92 88 87 88 90 91 92 92 91
87 88 90 92 92 94 96 95 95 91 95 98 95 95 84 80 64 71 74 79 71 65 72 90 94 98 98 90 93 97 84 96 91 88 95 97 90 89 87 86 83 92 90 91 91 90 90 90 85 86 88 88 88 90
88 89 90 90 94 96 93 92 92 97 98 93 92 80 67 62 62 66 69 70 65 72 71 84 96 98 99 92 95 82 92 83 88 96 94 93 88 86 89 83 75 80 89 90 92 93 94 95 95 93 92 90 87 92
88 89 91 94 92 91 94 94 93 99 94 86 77 66 60 53 60 62 68 71 64 72 80 85 78 76 83 78 87 75 78 94 89 94 91 93 88 88 87 81 77 71 90 91 91 91 92 94 96 95 92 94 93 90
88 90 93 92 93 96 94 95 97 97 95 93 88 61 60 52 55 58 62 62 65 75 79 72 77 72 78 82 74 86 87 94 88 96 94 94 90 86 85 82 71 63 75 91 91 88 88 90 91 93 95 94 90 92
91 88 91 92 94 94 95 94 96 90 78 64 65 56 53 60 57 58 67 62 70 59 64 65 59 72 78 76 79 91 86 86 88 81 89 92 90 85 84 86 64 66 69 75 91 91 91 88 90 91 88 78 93 90
97 86 85 92 92 96 97 98 83 74 62 64 57 53 64 61 60 62 65 67 56 66 63 57 66 68 67 70 74 80 83 78 79 78 76 89 86 78 72 75 63 67 72 70 77 80 85 86 86 86 70 62 66 86
90 88 90 92 92 96 86 81 79 68 69 70 68 75 71 64 84 84 78 63 64 72 66 67 65 69 71 76 75 76 83 84 76 76 81 76 72 71 66 70 59 65 67 61 56 55 59 68 65 58 57 60 58 60
92 92 94 94 92 91 83 89 81 76 73 65 77 73 76 89 93 92 86 72 59 57 51 57 57 60 68 69 78 75 77 78 79 64 64 67 71 62 60 66 56 64 58 58 56 62 56 57 57 58 56 58 55 57
92 95 95 95 97 94 90 91 72 77 77 70 75 83 88 94 94 90 91 94 67 74 58 61 68 64 72 78 81 81 77 75 68 68 71 74 70 60 56 59 57 59 58 52 49 54 58 56 59 56 55 58 59 59
89 90 94 95 89 93 96 92 72 74 77 76 82 88 90 93 94 96 97 87 75 76 72 71 65 70 81 79 77 70 72 71 73 68 70 68 56 60 62 64 59 59 57 56 51 50 51 52 56 57 60 63 65 63
92 94 92 89 89 76 69 82 64 76 73 76 83 80 90 94 96 94 92 94 92 89 78 64 66 74 80 79 80 82 73 63 55 54 59 61 62 61 57 56 57 53 50 52 59 52 53 67 66 63 63 61 61 61
92 91 89 89 80 76 72 68 89 88 82 78 83 81 92 96 96 89 89 94 94 92 81 82 84 72 76 86 90 84 72 56 55 58 60 55 54 60 59 54 53 54 57 60 59 55 53 57 70 64 63 62 61 60
94 72 70 77 81 76 69 70 73 79 80 89 83 88 93 97 92 89 88 92 96 93 94 93 83 77 70 75 68 62 62 54 49 50 56 57 63 56 52 54 56 58 59 55 58 57 58 58 62 62 60 59 58 59
98 88 73 68 76 69 68 66 73 79 88 87 90 95 97 94 89 85 89 92 93 94 93 87 80 78 76 68 59 54 51 50 54 46 53 50 55 50 52 51 51 49 54 56 58 57 57 57 56 53 53 54 70 59
96 79 73 79 74 80 87 93 91 88 86 87 88 91 94 89 87 86 92 93 94 94 93 89 81 76 76 79 69 68 52 54 54 49 50 48 45 50 57 52 55 55 54 55 56 58 59 57 56 55 57 58 57 59
88 88 74 76 86 83 75 89 86 86 86 94 90 80 80 80 83 86 86 86 95 95 88 76 70 70 64 61 62 67 58 54 51 47 45 50 59 75 69 55 63 74 60 58 57 60 61 61 59 55 58 62 63 60
91 93 85 74 71 82 88 85 84 92 94 94 81 84 87 92 90 90 88 96 96 90 62 50 52 48 51 53 56 61 59 56 52 53 53 55 66 52 52 67 76 55 57 60 76 71 58 60 61 59 57 58 60 62
74 86 78 70 70 72 74 92 89 96 96 90 90 94 93 92 92 96 87 64 60 69 57 51 53 52 55 52 56 53 56 61 58 57 60 59 54 57 61 67 79 72 79 70 64 60 72 62 63 57 59 60 60 60
77 82 72 72 69 72 79 92 95 94 95 96 95 91 90 88 85 68 57 56 52 50 49 53 58 58 56 56 54 52 52 60 63 62 62 64 65 66 65 72 84 86 83 75 66 63 63 67 64 63 60 62 63 62
79 75 70 71 76 84 75 75 79 85 90 91 94 96 95 90 81 76 68 51 49 50 61 57 57 62 63 61 60 61 71 63 64 61 61 64 67 71 75 76 76 77 74 72 66 62 66 68 65 65 62 61 62 62
77 72 74 70 81 72 74 72 77 84 87 89 93 92 88 80 74 66 67 60 49 51 56 61 61 57 58 59 62 66 71 66 76 83 83 82 80 72 64 65 64 62 63 66 64 63 64 64 64 63 61 62 64 63

GFSWCAN_sfc_rhum_045.txt.gz
RH
90 87 86 85 84 83 82 82 83 85 84 85 83 83 84 84 88 93 96 96 98 98 75 75 81 95 87 92 99 88 74 90 97 100 100 100 100 100 100 100 99 95 98 99 93 97 97 81 65 69 66 63 64 68
89 88 87 86 86 84 81 83 85 85 86 84 84 84 84 86 88 88 95 98 97 100 84 74 69 72 90 87 98 90 84 91 96 100 99 100 100 99 100 96 95 100 100 100 100 100 97 82 75 62 63 70 71 68
89 88 87 86 87 87 85 85 84 84 85 85 82 83 84 87 88 85 94 96 97 92 79 73 64 62 72 75 83 96 87 81 86 88 98 98 100 99 98 99 99 96 95 100 99 96 94 79 70 62 64 69 68 68
88 87 87 88 85 85 82 83 84 83 84 86 87 87 85 86 88 89 96 87 89 88 88 54 56 65 59 59 75 76 78 79 76 71 83 95 98 86 99 98 99 98 95 99 97 92 87 78 75 78 75 69 68 69
88 87 88 88 85 84 82 84 85 84 85 86 88 86 85 85 91 85 91 82 85 89 81 59 54 58 62 59 62 65 70 81 69 66 76 93 87 97 92 98 100 97 99 100 100 95 98 92 83 80 80 78 71 74
88 87 89 87 87 85 83 84 85 84 84 86 88 84 86 88 90 86 97 88 76 89 89 73 55 64 63 66 67 71 81 85 84 89 92 79 74 99 100 100 94 90 90 96 98 93 91 80 79 78 83 79 72 72
87 87 89 86 86 84 84 83 85 84 82 88 89 86 85 89 78 74 69 72 85 76 85 87 85 86 82 91 79 81 81 90 86 89 92 95 93 98 100 100 90 83 81 88 89 91 89 86 89 82 75 70 72 69
86 87 88 89 84 84 84 85 85 84 83 88 90 85 86 87 80 75 75 87 76 66 79 93 86 86 79 95 97 91 84 85 87 90 85 92 92 97 100 89 83 74 74 76 85 84 91 82 75 86 82 74 73 74
87 87 88 91 85 86 85 85 86 85 86 92 88 84 77 79 83 78 82 81 79 78 91 98 100 96 88 95 96 86 83 95 89 94 95 93 100 100 90 91 82 84 82 84 70 78 81 87 89 89 91 86 82 80
87 87 88 90 90 86 86 87 88 86 93 88 77 79 83 85 80 82 87 93 92 86 84 99 95 96 82 86 92 87 81 84 92 84 86 100 100 75 74 79 82 80 76 75 82 91 92 91 92 93 95 94 93 92
87 87 89 90 92 90 88 88 87 88 85 73 80 81 88 85 90 85 82 85 76 87 89 89 93 97 80 86 83 81 86 90 96 83 88 100 100 78 69 71 80 73 70 72 67 73 83 87 88 89 89 88 89 90
86 87 89 90 91 90 90 91 90 89 78 79 76 82 82 88 77 70 65 58 65 62 64 77 82 93 92 89 91 80 83 89 88 65 81 100 89 68 72 66 72 72 67 68 68 70 67 69 70 72 80 85 84 82
86 88 89 91 89 91 95 97 92 90 91 85 80 83 66 66 80 56 99 71 48 42 49 65 72 90 94 78 89 87 69 72 62 70 100 92 73 68 71 68 62 75 70 72 71 69 67 65 66 69 73 72 74 82
87 88 90 91 92 95 94 93 94 91 87 75 79 99 56 53 47 46 44 45 42 48 45 52 80 93 88 80 65 66 65 60 63 90 94 69 70 64 66 65 62 58 73 70 71 72 73 74 73 71 68 68 69 76
87 88 91 90 91 92 95 95 95 88 73 68 67 84 53 42 40 40 46 50 47 48 53 64 57 53 53 56 53 55 60 79 81 76 61 64 74 72 65 61 55 50 62 74 70 72 69 70 72 74 73 71 66 69
88 89 84 92 94 95 94 94 86 79 76 72 75 55 47 43 37 39 42 43 43 47 52 47 53 54 58 54 50 60 66 78 67 75 54 61 73 71 69 65 59 50 53 58 68 64 62 65 67 71 71 69 70 65
90 67 89 91 92 93 94 79 76 76 64 63 50 53 47 45 42 39 41 40 50 42 42 45 46 52 57 50 58 72 72 70 58 48 54 73 77 73 67 65 59 51 54 55 61 62 65 64 66 56 50 53 51 63
78 65 83 89 88 91 79 80 71 64 62 52 48 44 48 44 44 46 51 50 46 50 55 49 48 48 53 58 57 56 58 53 51 51 50 61 68 66 55 55 57 54 55 53 53 50 49 52 46 35 46 47 41 49
72 80 88 90 90 82 69 71 73 59 50 54 52 50 51 52 78 85 80 57 56 56 52 50 57 55 78 94 84 53 51 48 44 50 51 61 61 60 56 57 54 53 52 49 45 34 38 50 38 33 33 34 33 36
92 93 93 94 88 73 70 72 68 62 54 52 54 52 54 80 87 81 74 58 53 58 49 79 71 68 87 89 61 52 48 50 48 40 39 42 45 49 48 49 40 50 44 45 37 54 37 34 33 35 33 37 35 37
85 85 92 84 79 74 68 65 62 57 56 56 57 61 67 82 80 80 76 83 48 55 58 75 77 64 57 62 56 55 55 52 45 44 43 33 38 37 37 38 41 38 36 30 30 35 42 34 35 33 35 38 38 38
72 88 78 82 73 79 80 72 61 61 59 57 61 66 73 78 82 86 86 62 57 64 67 57 56 53 55 63 61 62 58 67 62 49 64 52 32 34 36 38 36 38 34 31 31 30 31 34 35 35 36 39 44 40
88 87 75 76 79 79 76 62 56 61 64 63 59 64 74 80 83 83 81 79 69 63 61 62 65 67 67 66 68 68 65 59 47 38 40 36 38 38 34 35 34 35 35 39 37 34 36 60 48 38 38 39 39 38
90 81 79 77 73 78 61 57 66 73 62 59 63 64 72 84 83 69 71 76 62 62 70 77 62 52 52 64 54 58 60 48 38 40 38 39 34 38 37 37 36 36 38 34 34 36 38 42 55 40 40 37 37 37
90 73 73 90 62 64 56 57 60 63 67 70 66 66 79 84 77 71 73 70 65 61 82 80 59 54 51 48 44 47 52 34 35 62 43 36 38 33 36 40 39 37 38 33 35 36 43 43 45 53 41 40 41 42
94 70 83 52 62 59 53 56 58 63 70 69 65 75 83 80 71 67 72 74 61 75 78 61 53 47 46 50 44 38 37 38 48 44 39 36 34 43 51 55 36 34 36 37 36 39 40 42 44 47 52 47 66 40
85 64 63 63 55 59 71 77 74 71 68 67 67 72 76 75 68 69 76 67 70 70 70 62 53 48 53 48 46 48 41 40 44 38 36 35 40 40 38 36 39 40 38 38 39 39 40 42 43 41 40 40 42 40
66 71 61 62 64 60 64 72 70 70 64 74 72 60 58 62 66 62 58 62 67 75 44 40 40 36 36 38 38 36 36 35 36 37 38 38 39 40 39 39 42 76 43 43 41 40 40 39 39 40 43 43 43 43
70 73 69 67 62 66 71 67 62 72 75 77 62 62 66 69 64 57 61 66 78 40 33 33 36 35 34 36 37 37 35 32 35 42 44 45 48 45 43 40 44 40 41 40 80 64 49 42 41 42 42 42 44 44
57 63 62 59 56 57 58 76 73 83 76 61 74 85 80 79 60 61 62 54 51 37 33 32 32 30 32 33 35 38 37 35 35 36 39 42 40 40 40 42 44 45 44 42 39 42 69 47 52 40 42 40 39 41
56 62 58 56 56 54 62 72 74 70 68 73 77 75 74 70 56 42 39 42 37 34 33 33 34 32 32 33 34 35 37 39 43 46 42 40 39 43 43 46 50 54 54 45 40 39 40 42 40 43 43 44 46 45
58 59 58 59 59 74 65 70 60 62 71 71 78 79 73 78 65 56 43 37 34 33 50 37 34 38 36 36 37 40 57 38 41 44 48 47 50 50 47 47 45 44 46 46 42 42 46 45 43 44 44 47 46 47
67 58 58 57 65 69 65 68 61 70 71 66 70 74 68 58 62 51 51 43 34 31 35 37 35 37 43 39 38 41 47 44 67 89 86 84 83 64 44 41 42 42 43 43 42 42 45 47 46 47 47 47 48 47

GFSWCAN_sfc_rhum_048.txt.gz
RH
89 85 84 85 84 82 82 83 85 84 82 81 80 81 82 83 87 76 75 82 88 82 56 52 59 73 87 84 96 80 62 76 96 100 99 100 100 100 100 100 87 85 94 92 87 91 92 74 90 97 81 65 72 68
87 86 85 86 85 84 84 84 86 84 82 81 80 83 83 84 87 81 77 86 88 99 53 50 49 48 61 71 95 72 69 76 93 99 98 100 100 98 100 98 98 99 95 100 98 92 88 90 97 91 74 89 79 68
87 86 86 88 85 86 81 83 84 83 80 84 82 83 82 85 87 78 62 66 75 59 46 39 42 47 45 46 59 94 64 60 86 83 97 98 100 98 98 100 100 97 96 100 100 95 97 87 86 90 87 86 76 66
86 85 86 87 84 85 83 82 83 79 80 83 86 84 83 84 88 83 68 54 56 54 49 40 38 46 42 40 49 55 62 61 62 62 80 97 99 90 99 98 99 98 97 99 99 96 91 87 87 93 85 82 77 67
86 85 87 88 85 84 82 82 84 79 79 82 86 83 83 82 90 71 55 50 50 58 50 35 39 40 43 46 46 45 46 51 47 52 60 88 93 98 96 92 100 96 99 100 100 96 97 93 93 87 84 84 82 76
86 86 87 89 87 83 82 83 82 80 80 82 86 80 84 86 95 64 79 59 51 53 58 60 42 53 50 61 47 49 46 48 40 44 54 48 63 96 99 100 88 80 88 94 98 94 94 92 87 83 78 85 79 78
84 86 87 88 86 83 84 84 84 84 80 83 87 82 82 88 65 64 58 60 71 53 54 67 65 64 67 80 59 43 48 42 42 40 45 56 60 72 87 100 71 66 65 80 87 87 88 89 96 90 77 71 76 76
84 86 87 88 88 85 83 82 83 82 81 83 88 81 85 89 81 62 58 82 65 52 51 84 64 71 61 76 87 64 49 42 42 43 44 46 44 66 98 57 61 55 54 60 75 82 86 84 86 88 86 83 85 90
84 86 87 89 90 87 84 83 83 85 86 87 89 84 64 65 74 69 81 79 64 67 76 91 94 81 64 65 72 62 47 72 45 66 68 68 91 100 75 64 64 60 57 59 62 69 67 76 80 82 85 87 89 89
84 85 87 88 90 92 86 84 84 83 89 90 71 58 67 70 82 80 77 72 74 65 65 96 78 83 59 62 58 61 54 61 89 53 50 99 100 55 49 49 60 61 52 49 60 67 66 72 74 80 84 89 87 86
85 86 87 88 89 89 87 86 84 87 89 57 54 50 65 84 79 78 66 63 51 66 58 60 79 59 54 82 68 61 67 73 98 68 72 100 97 66 47 46 55 54 51 48 47 48 53 58 64 65 64 76 81 78
85 86 87 89 90 88 88 89 86 71 49 65 60 60 60 77 65 59 47 40 47 47 35 42 45 58 78 62 81 67 74 75 73 41 59 100 76 51 48 44 46 54 52 50 50 51 49 52 52 53 52 56 72 76
85 86 88 90 88 87 90 91 89 88 84 59 61 67 55 51 78 44 98 58 34 28 28 35 44 64 82 68 84 78 65 51 41 53 100 83 49 44 45 41 38 44 53 54 52 49 48 49 50 51 53 50 49 66
86 88 89 92 89 92 93 94 93 87 68 56 58 98 47 41 34 33 33 32 26 31 29 32 44 85 77 68 50 59 44 42 46 83 93 48 56 47 44 40 40 37 42 50 52 51 50 49 49 49 48 47 48 53
87 89 90 88 90 93 94 90 94 73 54 54 50 77 40 28 27 27 28 31 26 27 31 37 41 44 45 46 36 39 47 58 64 70 45 39 55 56 46 42 37 35 35 41 48 47 51 48 45 45 44 42 47 50
87 90 73 89 92 92 91 90 79 58 54 52 53 42 30 32 27 25 28 30 27 27 33 34 46 41 45 35 42 48 67 75 61 54 37 37 59 52 53 47 41 34 35 36 38 38 38 39 38 39 34 35 39 48
90 46 88 90 90 91 91 64 56 61 49 50 36 29 34 34 32 30 31 29 35 33 49 66 59 49 46 57 90 86 84 66 44 34 32 54 55 52 46 43 40 36 36 36 38 37 38 35 33 32 38 39 34 41
50 50 81 88 83 84 61 60 54 50 52 36 37 31 32 34 36 37 44 39 43 38 42 58 69 87 97 98 95 65 57 37 34 34 36 46 52 54 44 44 45 42 38 36 36 36 34 34 30 25 32 33 29 32
54 65 83 90 86 64 51 55 56 46 36 30 31 32 36 36 53 54 48 43 40 38 41 54 80 91 92 81 64 56 56 34 36 35 35 48 50 49 46 42 43 41 38 39 37 27 28 35 28 24 22 24 25 26
91 92 94 94 87 55 53 50 54 50 42 38 36 36 39 44 48 41 40 41 39 35 47 67 76 75 71 59 55 62 35 35 39 39 31 27 27 35 37 36 27 37 34 37 29 54 28 27 24 24 24 28 26 27
85 77 90 73 61 57 50 41 42 40 38 38 39 42 42 46 44 44 42 41 34 39 54 48 55 58 46 44 46 64 45 37 50 36 33 26 24 25 26 26 29 25 26 28 27 32 38 27 26 24 26 27 25 26
58 90 59 68 59 60 59 50 48 46 45 39 42 43 45 53 50 50 48 37 46 48 41 40 41 41 39 52 49 54 49 56 62 41 58 41 26 30 29 25 25 26 25 26 27 27 28 25 27 25 27 30 34 27
86 78 59 58 65 74 66 43 49 43 48 44 42 46 49 52 53 51 45 43 46 42 42 45 58 57 54 50 55 58 54 56 40 32 29 30 37 31 26 27 25 28 30 28 24 23 29 45 37 30 30 31 30 30
90 63 63 57 60 70 46 47 44 49 47 44 44 48 51 53 50 44 45 47 43 41 51 65 60 35 34 44 34 42 43 38 33 31 34 38 29 30 28 26 26 27 30 26 25 28 31 33 46 33 31 32 32 30
82 74 69 99 50 53 44 43 46 47 48 49 51 47 53 53 53 48 50 44 39 38 48 49 53 37 34 35 37 34 48 32 33 41 41 29 28 31 40 36 32 29 26 32 28 30 32 36 38 36 35 36 36 33
91 53 78 36 41 47 39 44 45 47 49 51 46 51 52 56 58 55 48 42 39 49 58 54 46 47 38 38 32 30 30 29 38 55 33 28 39 59 57 52 31 30 25 25 31 38 49 45 49 44 39 38 59 35
72 46 46 42 40 40 46 50 50 47 52 50 46 52 51 52 51 52 43 43 43 50 48 40 38 31 28 26 26 28 28 29 34 30 29 34 33 32 33 34 35 30 26 26 28 37 36 38 42 35 33 32 34 35
44 46 45 43 43 38 47 50 50 51 43 43 47 50 41 43 52 46 42 44 45 35 30 26 25 24 25 25 23 24 27 28 31 30 30 34 36 30 32 30 31 67 32 33 31 32 32 37 36 33 36 38 38 34
48 43 42 48 45 42 50 46 40 36 40 40 42 42 47 47 41 40 42 40 32 25 25 25 26 24 24 24 24 24 23 22 27 37 42 55 44 34 32 35 37 30 27 30 84 58 44 37 36 37 37 39 38 36
37 37 42 40 42 40 36 36 41 46 42 39 45 53 48 44 36 40 37 39 32 27 24 23 22 23 25 24 26 28 24 24 24 26 28 31 29 28 32 33 32 29 27 28 30 34 69 41 49 35 37 36 36 37
35 38 40 36 36 34 37 46 43 45 46 50 55 45 46 38 34 33 32 31 26 24 24 24 24 24 25 24 25 24 28 29 32 32 27 26 26 29 31 33 31 30 29 30 32 33 34 35 36 38 39 39 39 42
39 42 38 44 38 52 47 50 45 46 46 52 58 52 49 47 47 49 33 29 27 26 41 29 27 29 27 25 25 27 48 29 31 32 35 31 32 33 30 29 28 29 31 30 30 32 35 34 36 39 40 40 40 40
42 40 42 39 46 56 53 56 53 62 64 56 52 53 48 48 55 48 38 30 26 24 26 27 27 29 32 29 29 31 38 35 63 89 82 85 86 60 30 28 29 30 31 29 30 32 35 36 37 39 39 40 40 38